Time,TemperatureF,DewpointF,PressureIn,WindDirection,WindDirectionDegrees,WindSpeedMPH,WindSpeedGustMPH,Humidity,HourlyPrecipIn,Conditions,Clouds,dailyrainin,SoftwareType,DateUTC
2013-05-08 00:00:00,57.2,57.2,30.20,WSW,248,9.0,12.0,0,0.00,,,0.00,meteohub,2013-05-08 04:00:00,
2013-05-08 00:01:00,57.2,57.2,30.20,WSW,248,9.0,12.0,0,0.00,,,0.00,meteohub,2013-05-08 04:01:00,
2013-05-08 00:03:00,57.2,57.2,30.20,WSW,248,9.0,12.0,0,0.00,,,0.00,meteohub,2013-05-08 04:03:00,
2013-05-08 00:06:00,57.2,57.2,30.19,WSW,248,9.0,12.0,0,0.00,,,0.00,meteohub,2013-05-08 04:06:00,
2013-05-08 00:07:00,57.2,57.2,30.19,WSW,248,9.0,12.0,0,0.00,,,0.00,meteohub,2013-05-08 04:07:00,
2013-05-08 00:08:00,57.0,0.9,30.19,East,90,8.0,12.0,10,0.00,,,0.00,meteohub,2013-05-08 04:08:00,
2013-05-08 00:09:00,57.0,0.9,30.19,East,90,7.0,12.0,10,0.00,,,0.00,meteohub,2013-05-08 04:09:00,
2013-05-08 00:12:00,56.8,2.8,30.19,East,90,2.0,11.0,11,0.00,,,0.00,meteohub,2013-05-08 04:12:00,
2013-05-08 00:13:00,56.8,2.8,30.19,East,90,2.0,11.0,11,0.00,,,0.00,meteohub,2013-05-08 04:13:00,
2013-05-08 00:14:00,56.8,2.8,30.19,SE,135,7.0,11.0,11,0.00,,,0.00,meteohub,2013-05-08 04:14:00,
2013-05-08 00:18:00,56.8,2.8,30.19,SE,135,11.0,11.0,11,0.00,,,0.00,meteohub,2013-05-08 04:18:00,
2013-05-08 00:19:00,56.7,2.7,30.19,East,90,6.0,9.0,11,0.00,,,0.00,meteohub,2013-05-08 04:19:00,
2013-05-08 00:20:00,56.7,2.7,30.19,East,90,4.0,14.0,11,0.00,,,0.00,meteohub,2013-05-08 04:20:00,
2013-05-08 00:25:00,55.2,1.6,30.19,East,90,9.0,14.0,11,0.00,,,0.00,meteohub,2013-05-08 04:25:00,
2013-05-08 00:26:00,56.7,2.7,30.19,East,90,8.0,14.0,11,0.00,,,0.00,meteohub,2013-05-08 04:26:00,
2013-05-08 00:27:00,56.7,4.6,30.19,SE,135,5.0,14.0,12,0.00,,,0.00,meteohub,2013-05-08 04:27:00,
2013-05-08 00:30:00,56.7,4.6,30.19,South,180,15.0,15.0,12,0.00,,,0.00,meteohub,2013-05-08 04:30:00,
2013-05-08 00:31:00,56.7,4.6,30.19,East,90,12.0,14.0,12,0.00,,,0.00,meteohub,2013-05-08 04:31:00,
2013-05-08 00:32:00,56.7,4.6,30.19,East,90,12.0,14.0,12,0.00,,,0.00,meteohub,2013-05-08 04:32:00,
2013-05-08 00:33:00,56.5,4.5,30.19,SE,135,5.0,14.0,12,0.00,,,0.00,meteohub,2013-05-08 04:33:00,
2013-05-08 00:35:00,56.5,4.5,30.19,NE,45,12.0,15.0,12,0.00,,,0.00,meteohub,2013-05-08 04:35:00,
2013-05-08 00:37:00,56.5,4.5,30.18,East,90,15.0,15.0,12,0.00,,,0.00,meteohub,2013-05-08 04:37:00,
2013-05-08 00:38:00,56.5,4.5,30.18,East,90,9.0,15.0,12,0.00,,,0.00,meteohub,2013-05-08 04:38:00,
2013-05-08 00:41:00,56.5,4.5,30.19,South,180,11.0,15.0,12,0.00,,,0.00,meteohub,2013-05-08 04:41:00,
2013-05-08 00:42:00,56.5,4.5,30.18,SE,135,10.0,15.0,12,0.00,,,0.00,meteohub,2013-05-08 04:42:00,
2013-05-08 00:44:00,56.5,4.5,30.19,East,90,6.0,15.0,12,0.00,,,0.00,meteohub,2013-05-08 04:44:00,
2013-05-08 00:47:00,56.5,4.5,30.19,North,0,11.0,15.0,12,0.00,,,0.00,meteohub,2013-05-08 04:47:00,
2013-05-08 00:48:00,56.5,4.5,30.19,North,0,11.0,15.0,12,0.00,,,0.00,meteohub,2013-05-08 04:48:00,
2013-05-08 00:49:00,56.5,4.5,30.19,East,90,6.0,15.0,12,0.00,,,0.00,meteohub,2013-05-08 04:49:00,
2013-05-08 00:53:00,56.5,4.5,30.18,SE,135,8.0,15.0,12,0.00,,,0.00,meteohub,2013-05-08 04:53:00,
2013-05-08 00:55:00,56.5,4.5,30.19,SE,135,7.0,15.0,12,0.00,,,0.00,meteohub,2013-05-08 04:55:00,
2013-05-08 00:58:00,56.5,4.5,30.18,South,180,6.0,15.0,12,0.00,,,0.00,meteohub,2013-05-08 04:58:00,
2013-05-08 00:59:00,56.5,4.5,30.19,SE,135,5.0,15.0,12,0.00,,,0.00,meteohub,2013-05-08 04:59:00,
2013-05-08 01:00:00,56.5,4.5,30.19,SE,135,5.0,15.0,12,0.00,,,0.00,meteohub,2013-05-08 05:00:00,
2013-05-08 01:01:00,56.3,4.3,30.18,South,180,7.0,15.0,12,0.00,,,0.00,meteohub,2013-05-08 05:01:00,
2013-05-08 01:03:00,56.3,4.3,30.18,South,180,4.0,15.0,12,0.00,,,0.00,meteohub,2013-05-08 05:03:00,
2013-05-08 01:05:00,56.3,6.1,30.18,East,90,5.0,13.0,13,0.00,,,0.00,meteohub,2013-05-08 05:05:00,
2013-05-08 01:06:00,56.3,6.1,30.18,East,90,9.0,13.0,13,0.00,,,0.00,meteohub,2013-05-08 05:06:00,
2013-05-08 01:08:00,56.5,6.3,30.18,NE,45,12.0,13.0,13,0.00,,,0.00,meteohub,2013-05-08 05:08:00,
2013-05-08 01:10:00,56.5,4.5,30.18,NE,45,8.0,13.0,12,0.00,,,0.00,meteohub,2013-05-08 05:10:00,
2013-05-08 01:11:00,56.5,4.5,30.18,NE,45,8.0,13.0,12,0.00,,,0.00,meteohub,2013-05-08 05:11:00,
2013-05-08 01:13:00,56.5,4.5,30.17,SE,135,7.0,13.0,12,0.00,,,0.00,meteohub,2013-05-08 05:13:00,
2013-05-08 01:16:00,56.5,4.5,30.18,SE,135,4.0,13.0,12,0.00,,,0.00,meteohub,2013-05-08 05:16:00,
2013-05-08 01:17:00,56.5,4.5,30.18,SE,135,5.0,13.0,12,0.00,,,0.00,meteohub,2013-05-08 05:17:00,
2013-05-08 01:19:00,56.5,4.5,30.18,SE,135,4.0,13.0,12,0.00,,,0.00,meteohub,2013-05-08 05:19:00,
2013-05-08 01:21:00,56.5,4.5,30.17,SSE,158,8.0,12.0,12,0.00,,,0.00,meteohub,2013-05-08 05:21:00,
2013-05-08 01:22:00,56.5,4.5,30.17,SE,135,9.0,12.0,12,0.00,,,0.00,meteohub,2013-05-08 05:22:00,
2013-05-08 01:23:00,56.5,4.5,30.17,SE,135,4.0,12.0,12,0.00,,,0.00,meteohub,2013-05-08 05:23:00,
2013-05-08 01:24:00,56.3,4.3,30.17,East,90,9.0,12.0,12,0.00,,,0.00,meteohub,2013-05-08 05:24:00,
2013-05-08 01:27:00,56.5,6.3,30.17,East,90,8.0,10.0,13,0.00,,,0.00,meteohub,2013-05-08 05:27:00,
2013-05-08 01:28:00,56.5,6.3,30.17,WSW,248,5.0,10.0,13,0.00,,,0.00,meteohub,2013-05-08 05:28:00,
2013-05-08 01:29:00,56.3,6.1,30.17,East,90,8.0,10.0,13,0.00,,,0.00,meteohub,2013-05-08 05:29:00,
2013-05-08 01:30:00,56.3,6.1,30.17,NE,45,12.0,12.0,13,0.00,,,0.00,meteohub,2013-05-08 05:30:00,
2013-05-08 01:32:00,56.3,6.1,30.17,SE,135,6.0,9.0,13,0.00,,,0.00,meteohub,2013-05-08 05:32:00,
2013-05-08 01:34:00,56.3,6.1,30.17,East,90,9.0,9.0,13,0.00,,,0.00,meteohub,2013-05-08 05:34:00,
2013-05-08 01:35:00,56.3,6.1,30.17,East,90,9.0,9.0,13,0.00,,,0.00,meteohub,2013-05-08 05:35:00,
2013-05-08 01:36:00,56.3,7.7,30.17,SE,135,7.0,12.0,14,0.00,,,0.00,meteohub,2013-05-08 05:36:00,
2013-05-08 01:38:00,56.3,7.7,30.17,South,180,8.0,12.0,14,0.00,,,0.00,meteohub,2013-05-08 05:38:00,
2013-05-08 01:40:00,56.3,7.7,30.16,East,90,9.0,12.0,14,0.00,,,0.00,meteohub,2013-05-08 05:40:00,
2013-05-08 01:41:00,56.3,7.7,30.17,East,90,5.0,12.0,14,0.00,,,0.00,meteohub,2013-05-08 05:41:00,
2013-05-08 01:42:00,56.3,7.7,30.17,North,0,8.0,12.0,14,0.00,,,0.00,meteohub,2013-05-08 05:42:00,
2013-05-08 01:43:00,56.1,7.5,30.17,East,90,7.0,12.0,14,0.00,,,0.00,meteohub,2013-05-08 05:43:00,
2013-05-08 01:45:00,56.1,7.5,30.16,East,90,6.0,12.0,14,0.00,,,0.00,meteohub,2013-05-08 05:45:00,
2013-05-08 01:46:00,56.1,7.5,30.16,East,90,6.0,12.0,14,0.00,,,0.00,meteohub,2013-05-08 05:46:00,
2013-05-08 01:47:00,56.1,7.5,30.16,East,90,8.0,12.0,14,0.00,,,0.00,meteohub,2013-05-08 05:47:00,
2013-05-08 01:48:00,56.1,7.5,30.16,North,0,8.0,12.0,14,0.00,,,0.00,meteohub,2013-05-08 05:48:00,
2013-05-08 01:49:00,56.1,7.5,30.16,SE,135,11.0,12.0,14,0.00,,,0.00,meteohub,2013-05-08 05:49:00,
2013-05-08 01:51:00,56.1,7.5,30.16,East,90,5.0,9.0,14,0.00,,,0.00,meteohub,2013-05-08 05:51:00,
2013-05-08 01:52:00,56.1,7.5,30.16,NE,45,11.0,11.0,14,0.00,,,0.00,meteohub,2013-05-08 05:52:00,
2013-05-08 01:54:00,56.1,7.5,30.16,SE,135,5.0,9.0,14,0.00,,,0.00,meteohub,2013-05-08 05:54:00,
2013-05-08 01:56:00,56.1,7.5,30.16,SE,135,12.0,12.0,14,0.00,,,0.00,meteohub,2013-05-08 05:56:00,
2013-05-08 01:58:00,56.1,7.5,30.16,East,90,11.0,11.0,14,0.00,,,0.00,meteohub,2013-05-08 05:58:00,
2013-05-08 02:00:00,56.1,9.1,30.16,East,90,8.0,17.0,15,0.00,,,0.00,meteohub,2013-05-08 06:00:00,
2013-05-08 02:01:00,56.1,9.1,30.16,East,90,9.0,17.0,15,0.00,,,0.00,meteohub,2013-05-08 06:01:00,
2013-05-08 02:03:00,56.1,9.1,30.16,East,90,6.0,17.0,15,0.00,,,0.00,meteohub,2013-05-08 06:03:00,
2013-05-08 02:06:00,56.1,9.1,30.16,SE,135,7.0,17.0,15,0.00,,,0.00,meteohub,2013-05-08 06:06:00,
2013-05-08 02:07:00,56.1,9.1,30.16,East,90,6.0,17.0,15,0.00,,,0.00,meteohub,2013-05-08 06:07:00,
2013-05-08 02:08:00,56.1,9.1,30.16,SE,135,8.0,17.0,15,0.00,,,0.00,meteohub,2013-05-08 06:08:00,
2013-05-08 02:11:00,56.1,9.1,30.16,NE,45,7.0,17.0,15,0.00,,,0.00,meteohub,2013-05-08 06:11:00,
2013-05-08 02:12:00,56.1,9.1,30.16,East,90,8.0,17.0,15,0.00,,,0.00,meteohub,2013-05-08 06:12:00,
2013-05-08 02:13:00,56.1,10.6,30.16,SE,135,4.0,17.0,16,0.00,,,0.00,meteohub,2013-05-08 06:13:00,
2013-05-08 02:15:00,56.1,10.6,30.17,SE,135,5.0,11.0,16,0.00,,,0.00,meteohub,2013-05-08 06:15:00,
2013-05-08 02:17:00,55.9,10.4,30.16,NE,45,5.0,11.0,16,0.00,,,0.00,meteohub,2013-05-08 06:17:00,
2013-05-08 02:18:00,55.9,10.4,30.16,SE,135,4.0,11.0,16,0.00,,,0.00,meteohub,2013-05-08 06:18:00,
2013-05-08 02:20:00,55.9,10.4,30.16,NE,45,5.0,11.0,16,0.00,,,0.00,meteohub,2013-05-08 06:20:00,
2013-05-08 02:21:00,55.9,11.7,30.16,SE,135,5.0,11.0,17,0.00,,,0.00,meteohub,2013-05-08 06:21:00,
2013-05-08 02:22:00,55.9,11.7,30.16,NE,45,4.0,11.0,17,0.00,,,0.00,meteohub,2013-05-08 06:22:00,
2013-05-08 02:24:00,55.9,11.7,30.16,NW,315,4.0,11.0,17,0.00,,,0.00,meteohub,2013-05-08 06:24:00,
2013-05-08 02:25:00,55.8,11.7,30.16,SE,135,7.0,10.0,17,0.01,,,0.01,meteohub,2013-05-08 06:25:00,
2013-05-08 02:26:00,55.8,12.9,30.16,East,90,4.0,10.0,18,0.01,,,0.01,meteohub,2013-05-08 06:26:00,
2013-05-08 02:27:00,55.8,12.9,30.16,South,180,8.0,10.0,18,0.01,,,0.01,meteohub,2013-05-08 06:27:00,
2013-05-08 02:28:00,55.8,12.9,30.16,East,90,4.0,10.0,18,0.01,,,0.01,meteohub,2013-05-08 06:28:00,
2013-05-08 02:30:00,55.8,14.2,30.16,East,90,4.0,8.0,19,0.01,,,0.01,meteohub,2013-05-08 06:30:00,
2013-05-08 02:31:00,55.8,14.2,30.16,East,90,8.0,8.0,19,0.01,,,0.01,meteohub,2013-05-08 06:31:00,
2013-05-08 02:32:00,55.8,14.2,30.16,East,90,8.0,8.0,19,0.01,,,0.01,meteohub,2013-05-08 06:32:00,
2013-05-08 02:33:00,55.8,14.2,30.16,East,90,5.0,8.0,19,0.01,,,0.01,meteohub,2013-05-08 06:33:00,
2013-05-08 02:36:00,55.8,14.2,30.17,SE,135,4.0,8.0,19,0.01,,,0.01,meteohub,2013-05-08 06:36:00,
2013-05-08 02:38:00,55.8,15.3,30.17,SE,135,3.0,8.0,20,0.01,,,0.01,meteohub,2013-05-08 06:38:00,
2013-05-08 02:39:00,55.6,15.1,30.17,East,90,4.0,8.0,20,0.01,,,0.01,meteohub,2013-05-08 06:39:00,
2013-05-08 02:41:00,55.6,16.2,30.17,East,90,3.0,8.0,21,0.06,,,0.06,meteohub,2013-05-08 06:41:00,
2013-05-08 02:43:00,55.6,16.2,30.17,East,90,3.0,8.0,21,0.06,,,0.06,meteohub,2013-05-08 06:43:00,
2013-05-08 02:44:00,55.6,16.2,30.17,East,90,4.0,8.0,21,0.06,,,0.06,meteohub,2013-05-08 06:44:00,
2013-05-08 02:45:00,55.6,16.2,30.17,SE,135,4.0,8.0,21,0.11,,,0.11,meteohub,2013-05-08 06:45:00,
2013-05-08 02:46:00,55.4,16.2,30.17,East,90,4.0,8.0,21,0.11,,,0.11,meteohub,2013-05-08 06:46:00,
2013-05-08 02:48:00,55.4,17.2,30.17,NE,45,4.0,8.0,22,0.11,,,0.11,meteohub,2013-05-08 06:48:00,
2013-05-08 02:49:00,55.4,17.2,30.17,East,90,4.0,8.0,22,0.11,,,0.11,meteohub,2013-05-08 06:49:00,
2013-05-08 02:51:00,55.0,16.9,30.18,SE,135,4.0,6.0,22,0.13,,,0.13,meteohub,2013-05-08 06:51:00,
2013-05-08 02:53:00,55.0,16.9,30.17,North,0,3.0,6.0,22,0.13,,,0.13,meteohub,2013-05-08 06:53:00,
2013-05-08 02:54:00,54.9,16.7,30.17,East,90,4.0,6.0,22,0.13,,,0.13,meteohub,2013-05-08 06:54:00,
2013-05-08 02:55:00,54.9,16.7,30.17,East,90,4.0,6.0,22,0.13,,,0.13,meteohub,2013-05-08 06:55:00,
2013-05-08 02:56:00,54.9,16.7,30.17,East,90,3.0,6.0,22,0.15,,,0.15,meteohub,2013-05-08 06:56:00,
2013-05-08 02:58:00,54.7,16.5,30.17,SE,135,5.0,6.0,22,0.15,,,0.15,meteohub,2013-05-08 06:58:00,
2013-05-08 03:00:00,54.5,16.3,30.17,NE,45,6.0,6.0,22,0.15,,,0.15,meteohub,2013-05-08 07:00:00,
2013-05-08 03:02:00,54.3,16.3,30.17,East,90,3.0,6.0,22,0.19,,,0.19,meteohub,2013-05-08 07:02:00,
2013-05-08 03:03:00,54.3,16.3,30.17,SE,135,4.0,6.0,22,0.19,,,0.19,meteohub,2013-05-08 07:03:00,
2013-05-08 03:04:00,54.3,16.3,30.17,East,90,3.0,6.0,22,0.19,,,0.19,meteohub,2013-05-08 07:04:00,
2013-05-08 03:05:00,54.3,16.3,30.17,East,90,3.0,6.0,22,0.24,,,0.24,meteohub,2013-05-08 07:05:00,
2013-05-08 03:06:00,54.1,16.2,30.17,East,90,5.0,6.0,22,0.24,,,0.24,meteohub,2013-05-08 07:06:00,
2013-05-08 03:07:00,54.1,16.2,30.17,East,90,4.0,6.0,22,0.24,,,0.24,meteohub,2013-05-08 07:07:00,
2013-05-08 03:09:00,54.1,16.2,30.17,SE,135,4.0,6.0,22,0.24,,,0.24,meteohub,2013-05-08 07:09:00,
2013-05-08 03:10:00,54.0,16.0,30.17,East,90,5.0,6.0,22,0.27,,,0.27,meteohub,2013-05-08 07:10:00,
2013-05-08 03:12:00,54.0,16.0,30.18,South,180,4.0,6.0,22,0.27,,,0.27,meteohub,2013-05-08 07:12:00,
2013-05-08 03:13:00,54.0,16.0,30.18,SE,135,4.0,6.0,22,0.27,,,0.27,meteohub,2013-05-08 07:13:00,
2013-05-08 03:15:00,53.8,15.8,30.18,WSW,248,3.0,6.0,22,0.27,,,0.27,meteohub,2013-05-08 07:15:00,
2013-05-08 03:16:00,53.8,15.8,30.18,WSW,248,3.0,6.0,22,0.27,,,0.27,meteohub,2013-05-08 07:16:00,
2013-05-08 03:17:00,53.8,15.8,30.18,SE,135,2.0,6.0,22,0.27,,,0.27,meteohub,2013-05-08 07:17:00,
2013-05-08 03:18:00,53.8,15.8,30.18,WSW,248,2.0,6.0,22,0.27,,,0.27,meteohub,2013-05-08 07:18:00,
2013-05-08 03:21:00,53.6,15.6,30.18,SE,135,2.0,5.0,22,0.37,,,0.38,meteohub,2013-05-08 07:21:00,
2013-05-08 03:23:00,53.6,15.6,30.18,East,90,2.0,5.0,22,0.37,,,0.38,meteohub,2013-05-08 07:23:00,
2013-05-08 03:24:00,53.6,15.6,30.18,East,90,2.0,5.0,22,0.37,,,0.38,meteohub,2013-05-08 07:24:00,
2013-05-08 03:26:00,53.2,15.4,30.18,East,90,2.0,5.0,22,0.40,,,0.41,meteohub,2013-05-08 07:26:00,
2013-05-08 03:27:00,53.2,15.4,30.18,East,90,2.0,5.0,22,0.40,,,0.41,meteohub,2013-05-08 07:27:00,
2013-05-08 03:28:00,53.2,16.3,30.18,East,90,4.0,5.0,23,0.40,,,0.41,meteohub,2013-05-08 07:28:00,
2013-05-08 03:29:00,53.2,15.4,30.18,East,90,4.0,5.0,22,0.40,,,0.41,meteohub,2013-05-08 07:29:00,
2013-05-08 03:32:00,53.1,15.3,30.19,SE,135,2.0,4.0,22,0.40,,,0.41,meteohub,2013-05-08 07:32:00,
2013-05-08 03:34:00,52.9,15.1,30.18,East,90,3.0,4.0,22,0.40,,,0.41,meteohub,2013-05-08 07:34:00,
2013-05-08 03:35:00,52.7,14.9,30.18,SE,135,4.0,4.0,22,0.43,,,0.44,meteohub,2013-05-08 07:35:00,
2013-05-08 03:36:00,52.7,14.9,30.18,SE,135,2.0,4.0,22,0.43,,,0.44,meteohub,2013-05-08 07:36:00,
2013-05-08 03:38:00,52.5,15.8,30.17,SE,135,2.0,4.0,23,0.43,,,0.44,meteohub,2013-05-08 07:38:00,
2013-05-08 03:39:00,52.5,14.7,30.18,East,90,2.0,4.0,22,0.43,,,0.44,meteohub,2013-05-08 07:39:00,
2013-05-08 03:40:00,52.3,14.5,30.18,SE,135,2.0,4.0,22,0.39,,,0.46,meteohub,2013-05-08 07:40:00,
2013-05-08 03:41:00,52.3,14.5,30.18,SE,135,2.0,4.0,22,0.39,,,0.46,meteohub,2013-05-08 07:41:00,
2013-05-08 03:43:00,52.3,14.5,30.18,East,90,4.0,4.0,22,0.39,,,0.46,meteohub,2013-05-08 07:43:00,
2013-05-08 03:44:00,52.3,15.6,30.17,East,90,2.0,4.0,23,0.39,,,0.46,meteohub,2013-05-08 07:44:00,
2013-05-08 03:46:00,52.3,15.6,30.17,East,90,0.0,4.0,23,0.33,,,0.46,meteohub,2013-05-08 07:46:00,
2013-05-08 03:47:00,52.3,15.6,30.17,NE,45,2.0,4.0,23,0.33,,,0.46,meteohub,2013-05-08 07:47:00,
2013-05-08 03:48:00,52.3,15.6,30.17,East,90,2.0,4.0,23,0.33,,,0.46,meteohub,2013-05-08 07:48:00,
2013-05-08 03:49:00,52.2,15.4,30.17,East,90,2.0,4.0,23,0.33,,,0.46,meteohub,2013-05-08 07:49:00,
2013-05-08 03:51:00,52.2,15.4,30.17,East,90,2.0,4.0,23,0.33,,,0.46,meteohub,2013-05-08 07:51:00,
2013-05-08 03:53:00,52.2,15.4,30.17,SE,135,2.0,4.0,23,0.33,,,0.46,meteohub,2013-05-08 07:53:00,
2013-05-08 03:54:00,52.2,15.4,30.16,East,90,3.0,4.0,23,0.33,,,0.46,meteohub,2013-05-08 07:54:00,
2013-05-08 03:55:00,52.2,15.4,30.17,East,90,3.0,4.0,23,0.28,,,0.46,meteohub,2013-05-08 07:55:00,
2013-05-08 03:58:00,52.0,15.3,30.16,East,90,2.0,4.0,23,0.28,,,0.46,meteohub,2013-05-08 07:58:00,
2013-05-08 04:01:00,52.0,15.3,30.16,East,90,2.0,3.0,23,0.25,,,0.46,meteohub,2013-05-08 08:01:00,
2013-05-08 04:03:00,52.0,15.3,30.16,East,90,2.0,3.0,23,0.25,,,0.46,meteohub,2013-05-08 08:03:00,
2013-05-08 04:05:00,52.0,15.3,30.16,East,90,2.0,3.0,23,0.25,,,0.46,meteohub,2013-05-08 08:05:00,
2013-05-08 04:07:00,52.0,16.3,30.16,East,90,2.0,4.0,24,0.21,,,0.46,meteohub,2013-05-08 08:07:00,
2013-05-08 04:08:00,52.0,16.3,30.16,East,90,2.0,4.0,24,0.21,,,0.46,meteohub,2013-05-08 08:08:00,
2013-05-08 04:09:00,52.0,16.3,30.16,East,90,2.0,4.0,24,0.21,,,0.46,meteohub,2013-05-08 08:09:00,
2013-05-08 04:11:00,52.0,16.3,30.16,East,90,2.0,4.0,24,0.19,,,0.46,meteohub,2013-05-08 08:11:00,
2013-05-08 04:13:00,52.0,16.3,30.16,NE,45,2.0,4.0,24,0.19,,,0.46,meteohub,2013-05-08 08:13:00,
2013-05-08 04:14:00,52.0,16.3,30.16,East,90,3.0,4.0,24,0.19,,,0.46,meteohub,2013-05-08 08:14:00,
2013-05-08 04:17:00,52.0,16.3,30.16,East,90,2.0,4.0,24,0.13,,,0.46,meteohub,2013-05-08 08:17:00,
2013-05-08 04:19:00,51.8,16.2,30.17,East,90,0.0,4.0,24,0.13,,,0.46,meteohub,2013-05-08 08:19:00,
2013-05-08 04:22:00,51.8,16.2,30.17,East,90,0.0,3.0,24,0.07,,,0.46,meteohub,2013-05-08 08:22:00,
2013-05-08 04:24:00,51.8,16.2,30.17,East,90,0.0,3.0,24,0.07,,,0.46,meteohub,2013-05-08 08:24:00,
2013-05-08 04:25:00,51.6,16.0,30.17,East,90,0.0,3.0,24,0.07,,,0.46,meteohub,2013-05-08 08:25:00,
2013-05-08 04:28:00,51.6,16.0,30.17,East,90,3.0,3.0,24,0.05,,,0.46,meteohub,2013-05-08 08:28:00,
2013-05-08 04:30:00,51.6,16.0,30.17,East,90,3.0,3.0,24,0.05,,,0.46,meteohub,2013-05-08 08:30:00,
2013-05-08 04:31:00,51.6,16.0,30.17,East,90,3.0,3.0,24,0.05,,,0.46,meteohub,2013-05-08 08:31:00,
2013-05-08 04:32:00,51.6,16.0,30.17,East,90,3.0,3.0,24,0.05,,,0.46,meteohub,2013-05-08 08:32:00,
2013-05-08 04:33:00,51.6,16.0,30.17,East,90,4.0,4.0,24,0.05,,,0.46,meteohub,2013-05-08 08:33:00,
2013-05-08 04:35:00,51.6,16.0,30.16,East,90,3.0,4.0,24,0.04,,,0.47,meteohub,2013-05-08 08:35:00,
2013-05-08 04:36:00,51.6,16.0,30.17,ESE,113,3.0,4.0,24,0.04,,,0.47,meteohub,2013-05-08 08:36:00,
2013-05-08 04:37:00,51.4,15.8,30.16,East,90,3.0,4.0,24,0.04,,,0.47,meteohub,2013-05-08 08:37:00,
2013-05-08 04:40:00,51.4,16.7,30.17,East,90,3.0,4.0,25,0.01,,,0.47,meteohub,2013-05-08 08:40:00,
2013-05-08 04:42:00,51.4,16.7,30.17,SE,135,4.0,4.0,25,0.01,,,0.47,meteohub,2013-05-08 08:42:00,
2013-05-08 04:43:00,51.4,16.7,30.16,NE,45,5.0,5.0,25,0.01,,,0.47,meteohub,2013-05-08 08:43:00,
2013-05-08 04:46:00,51.4,16.7,30.16,South,180,3.0,5.0,25,0.01,,,0.47,meteohub,2013-05-08 08:46:00,
2013-05-08 04:47:00,51.4,16.7,30.17,East,90,3.0,5.0,25,0.01,,,0.47,meteohub,2013-05-08 08:47:00,
2013-05-08 04:48:00,51.4,16.7,30.17,SE,135,4.0,5.0,25,0.01,,,0.47,meteohub,2013-05-08 08:48:00,
2013-05-08 04:51:00,51.4,16.7,30.17,East,90,4.0,5.0,25,0.01,,,0.47,meteohub,2013-05-08 08:51:00,
2013-05-08 04:52:00,51.4,16.7,30.16,SE,135,3.0,5.0,25,0.01,,,0.47,meteohub,2013-05-08 08:52:00,
2013-05-08 04:53:00,51.4,16.7,30.16,East,90,4.0,5.0,25,0.01,,,0.47,meteohub,2013-05-08 08:53:00,
2013-05-08 04:54:00,51.4,16.7,30.16,East,90,4.0,5.0,25,0.01,,,0.47,meteohub,2013-05-08 08:54:00,
2013-05-08 04:56:00,51.4,17.6,30.16,SE,135,2.0,5.0,26,0.01,,,0.47,meteohub,2013-05-08 08:56:00,
2013-05-08 04:58:00,51.6,17.8,30.16,East,90,3.0,5.0,26,0.01,,,0.47,meteohub,2013-05-08 08:58:00,
2013-05-08 04:59:00,51.6,17.8,30.16,East,90,3.0,5.0,26,0.01,,,0.47,meteohub,2013-05-08 08:59:00,
2013-05-08 05:00:00,51.6,17.8,30.16,East,90,4.0,5.0,26,0.01,,,0.47,meteohub,2013-05-08 09:00:00,
2013-05-08 05:02:00,51.6,17.8,30.17,East,90,4.0,4.0,26,0.01,,,0.47,meteohub,2013-05-08 09:02:00,
2013-05-08 05:04:00,51.6,17.8,30.17,East,90,3.0,4.0,26,0.01,,,0.47,meteohub,2013-05-08 09:04:00,
2013-05-08 05:05:00,51.6,17.8,30.17,East,90,3.0,4.0,26,0.01,,,0.47,meteohub,2013-05-08 09:05:00,
2013-05-08 05:07:00,51.6,17.8,30.17,East,90,2.0,4.0,26,0.01,,,0.47,meteohub,2013-05-08 09:07:00,
2013-05-08 05:08:00,51.6,17.8,30.17,East,90,4.0,4.0,26,0.01,,,0.47,meteohub,2013-05-08 09:08:00,
2013-05-08 05:09:00,51.8,18.0,30.17,East,90,3.0,4.0,26,0.01,,,0.47,meteohub,2013-05-08 09:09:00,
2013-05-08 05:10:00,51.8,18.0,30.17,East,90,4.0,4.0,26,0.01,,,0.47,meteohub,2013-05-08 09:10:00,
2013-05-08 05:12:00,51.8,18.9,30.17,SE,135,7.0,7.0,27,0.01,,,0.47,meteohub,2013-05-08 09:12:00,
2013-05-08 05:13:00,51.8,18.0,30.17,East,90,3.0,4.0,26,0.01,,,0.47,meteohub,2013-05-08 09:13:00,
2013-05-08 05:15:00,51.8,18.9,30.17,East,90,4.0,7.0,27,0.01,,,0.47,meteohub,2013-05-08 09:15:00,
2013-05-08 05:16:00,51.8,18.9,30.17,East,90,4.0,7.0,27,0.01,,,0.47,meteohub,2013-05-08 09:16:00,
2013-05-08 05:17:00,51.8,18.9,30.17,East,90,4.0,7.0,27,0.01,,,0.47,meteohub,2013-05-08 09:17:00,
2013-05-08 05:18:00,52.0,19.0,30.17,East,90,4.0,7.0,27,0.01,,,0.47,meteohub,2013-05-08 09:18:00,
2013-05-08 05:19:00,52.0,19.0,30.17,East,90,4.0,7.0,27,0.01,,,0.47,meteohub,2013-05-08 09:19:00,
2013-05-08 05:21:00,52.0,19.0,30.17,NE,45,4.0,7.0,27,0.01,,,0.47,meteohub,2013-05-08 09:21:00,
2013-05-08 05:22:00,52.0,19.0,30.17,SE,135,3.0,7.0,27,0.01,,,0.47,meteohub,2013-05-08 09:22:00,
2013-05-08 05:23:00,52.0,19.0,30.17,SE,135,3.0,7.0,27,0.01,,,0.47,meteohub,2013-05-08 09:23:00,
2013-05-08 05:25:00,52.0,19.0,30.17,East,90,4.0,7.0,27,0.01,,,0.47,meteohub,2013-05-08 09:25:00,
2013-05-08 05:26:00,52.0,19.0,30.17,East,90,4.0,7.0,27,0.01,,,0.47,meteohub,2013-05-08 09:26:00,
2013-05-08 05:28:00,52.0,19.0,30.17,East,90,4.0,7.0,27,0.01,,,0.47,meteohub,2013-05-08 09:28:00,
2013-05-08 05:29:00,52.0,19.0,30.17,East,90,5.0,7.0,27,0.01,,,0.47,meteohub,2013-05-08 09:29:00,
2013-05-08 05:30:00,52.0,19.0,30.17,East,90,4.0,7.0,27,0.01,,,0.47,meteohub,2013-05-08 09:30:00,
2013-05-08 05:31:00,52.0,19.0,30.17,SE,135,2.0,5.0,27,0.01,,,0.47,meteohub,2013-05-08 09:31:00,
2013-05-08 05:33:00,52.0,19.9,30.17,East,90,2.0,5.0,28,0.01,,,0.47,meteohub,2013-05-08 09:33:00,
2013-05-08 05:34:00,52.0,19.9,30.17,East,90,3.0,5.0,28,0.01,,,0.47,meteohub,2013-05-08 09:34:00,
2013-05-08 05:35:00,52.0,19.9,30.17,East,90,3.0,5.0,28,0.00,,,0.47,meteohub,2013-05-08 09:35:00,
2013-05-08 05:37:00,52.0,19.9,30.17,East,90,3.0,5.0,28,0.00,,,0.47,meteohub,2013-05-08 09:37:00,
2013-05-08 05:40:00,52.0,19.9,30.18,East,90,2.0,5.0,28,0.01,,,0.48,meteohub,2013-05-08 09:40:00,
2013-05-08 05:42:00,52.0,19.9,30.18,East,90,3.0,5.0,28,0.01,,,0.48,meteohub,2013-05-08 09:42:00,
2013-05-08 05:46:00,52.0,19.9,30.18,East,90,2.0,4.0,28,0.01,,,0.48,meteohub,2013-05-08 09:46:00,
2013-05-08 05:47:00,52.0,19.9,30.18,East,90,2.0,4.0,28,0.01,,,0.48,meteohub,2013-05-08 09:47:00,
2013-05-08 05:51:00,52.0,19.9,30.18,East,90,2.0,4.0,28,0.01,,,0.48,meteohub,2013-05-08 09:51:00,
2013-05-08 05:52:00,52.0,19.9,30.18,SE,135,3.0,4.0,28,0.01,,,0.48,meteohub,2013-05-08 09:52:00,
2013-05-08 05:53:00,52.0,19.9,30.18,East,90,4.0,4.0,28,0.01,,,0.48,meteohub,2013-05-08 09:53:00,
2013-05-08 05:54:00,52.0,19.9,30.18,East,90,2.0,4.0,28,0.01,,,0.48,meteohub,2013-05-08 09:54:00,
2013-05-08 05:57:00,52.0,19.9,30.17,SE,135,5.0,5.0,28,0.01,,,0.48,meteohub,2013-05-08 09:57:00,
2013-05-08 05:58:00,52.0,19.9,30.18,East,90,4.0,4.0,28,0.01,,,0.48,meteohub,2013-05-08 09:58:00,
2013-05-08 05:59:00,52.0,19.9,30.18,East,90,4.0,4.0,28,0.01,,,0.48,meteohub,2013-05-08 09:59:00,
2013-05-08 06:00:00,52.0,19.9,30.18,East,90,4.0,4.0,28,0.01,,,0.48,meteohub,2013-05-08 10:00:00,
2013-05-08 06:02:00,52.2,20.1,30.18,East,90,3.0,7.0,28,0.01,,,0.48,meteohub,2013-05-08 10:02:00,
2013-05-08 06:03:00,52.2,20.1,30.18,SE,135,3.0,7.0,28,0.01,,,0.48,meteohub,2013-05-08 10:03:00,
2013-05-08 06:05:00,52.2,20.1,30.18,East,90,2.0,7.0,28,0.01,,,0.48,meteohub,2013-05-08 10:05:00,
2013-05-08 06:07:00,52.2,20.1,30.18,SE,135,3.0,7.0,28,0.01,,,0.48,meteohub,2013-05-08 10:07:00,
2013-05-08 06:08:00,52.2,20.1,30.18,SE,135,2.0,7.0,28,0.01,,,0.48,meteohub,2013-05-08 10:08:00,
2013-05-08 06:09:00,52.2,20.1,30.18,SE,135,2.0,7.0,28,0.01,,,0.48,meteohub,2013-05-08 10:09:00,
2013-05-08 06:10:00,52.2,20.1,30.18,East,90,2.0,7.0,28,0.01,,,0.48,meteohub,2013-05-08 10:10:00,
2013-05-08 06:12:00,52.2,20.1,30.18,East,90,3.0,7.0,28,0.01,,,0.48,meteohub,2013-05-08 10:12:00,
2013-05-08 06:14:00,52.2,20.1,30.18,East,90,2.0,7.0,28,0.01,,,0.48,meteohub,2013-05-08 10:14:00,
2013-05-08 06:15:00,52.2,20.1,30.18,East,90,2.0,7.0,28,0.01,,,0.48,meteohub,2013-05-08 10:15:00,
2013-05-08 06:16:00,52.2,20.1,30.18,East,90,2.0,4.0,28,0.01,,,0.48,meteohub,2013-05-08 10:16:00,
2013-05-08 06:19:00,52.2,20.1,30.18,East,90,0.0,4.0,28,0.01,,,0.48,meteohub,2013-05-08 10:19:00,
2013-05-08 06:20:00,52.2,20.1,30.18,East,90,0.0,4.0,28,0.01,,,0.48,meteohub,2013-05-08 10:20:00,
2013-05-08 06:21:00,52.2,20.1,30.18,East,90,0.0,4.0,28,0.01,,,0.48,meteohub,2013-05-08 10:21:00,
2013-05-08 06:22:00,52.2,20.1,30.18,East,90,0.0,4.0,28,0.01,,,0.48,meteohub,2013-05-08 10:22:00,
2013-05-08 06:24:00,52.2,20.1,30.18,SE,135,2.0,4.0,28,0.01,,,0.48,meteohub,2013-05-08 10:24:00,
2013-05-08 06:26:00,52.2,20.1,30.18,NE,45,2.0,3.0,28,0.01,,,0.48,meteohub,2013-05-08 10:26:00,
2013-05-08 06:27:00,52.2,20.1,30.18,East,90,4.0,4.0,28,0.01,,,0.48,meteohub,2013-05-08 10:27:00,
2013-05-08 06:30:00,52.2,20.1,30.18,East,90,2.0,4.0,28,0.01,,,0.48,meteohub,2013-05-08 10:30:00,
2013-05-08 06:32:00,52.2,20.1,30.18,East,90,2.0,4.0,28,0.01,,,0.48,meteohub,2013-05-08 10:32:00,
2013-05-08 06:33:00,52.2,20.1,30.18,East,90,2.0,4.0,28,0.01,,,0.48,meteohub,2013-05-08 10:33:00,
2013-05-08 06:34:00,52.2,20.1,30.18,SE,135,2.0,4.0,28,0.01,,,0.48,meteohub,2013-05-08 10:34:00,
2013-05-08 06:36:00,52.2,20.1,30.19,East,90,2.0,4.0,28,0.01,,,0.48,meteohub,2013-05-08 10:36:00,
2013-05-08 06:38:00,52.2,20.1,30.19,East,90,2.0,4.0,28,0.01,,,0.48,meteohub,2013-05-08 10:38:00,
2013-05-08 06:39:00,52.2,20.1,30.19,East,90,2.0,4.0,28,0.01,,,0.48,meteohub,2013-05-08 10:39:00,
2013-05-08 06:40:00,52.2,20.1,30.19,East,90,2.0,4.0,28,0.00,,,0.48,meteohub,2013-05-08 10:40:00,
2013-05-08 06:42:00,52.2,20.1,30.19,East,90,2.0,4.0,28,0.00,,,0.48,meteohub,2013-05-08 10:42:00,
2013-05-08 06:43:00,52.2,20.8,30.19,East,90,3.0,4.0,29,0.00,,,0.48,meteohub,2013-05-08 10:43:00,
2013-05-08 06:44:00,52.3,20.1,30.19,East,90,4.0,4.0,28,0.00,,,0.48,meteohub,2013-05-08 10:44:00,
2013-05-08 06:45:00,52.3,20.1,30.19,East,90,2.0,4.0,28,0.00,,,0.48,meteohub,2013-05-08 10:45:00,
2013-05-08 06:46:00,52.3,20.1,30.19,East,90,2.0,3.0,28,0.00,,,0.48,meteohub,2013-05-08 10:46:00,
2013-05-08 06:47:00,52.3,21.0,30.19,SE,135,4.0,4.0,29,0.00,,,0.48,meteohub,2013-05-08 10:47:00,
2013-05-08 06:49:00,52.3,21.0,30.19,SE,135,2.0,3.0,29,0.00,,,0.48,meteohub,2013-05-08 10:49:00,
2013-05-08 06:50:00,52.3,21.0,30.19,East,90,2.0,3.0,29,0.00,,,0.48,meteohub,2013-05-08 10:50:00,
2013-05-08 06:51:00,52.5,21.2,30.19,SE,135,2.0,4.0,29,0.00,,,0.48,meteohub,2013-05-08 10:51:00,
2013-05-08 06:53:00,52.5,21.2,30.19,East,90,2.0,4.0,29,0.00,,,0.48,meteohub,2013-05-08 10:53:00,
2013-05-08 06:55:00,52.5,21.2,30.19,East,90,2.0,4.0,29,0.00,,,0.48,meteohub,2013-05-08 10:55:00,
2013-05-08 06:56:00,52.5,21.2,30.19,NE,45,4.0,4.0,29,0.00,,,0.48,meteohub,2013-05-08 10:56:00,
2013-05-08 06:59:00,52.7,21.4,30.19,East,90,2.0,4.0,29,0.00,,,0.48,meteohub,2013-05-08 10:59:00,
2013-05-08 07:01:00,52.7,21.4,30.19,East,90,3.0,4.0,29,0.00,,,0.48,meteohub,2013-05-08 11:01:00,
2013-05-08 07:02:00,52.7,21.4,30.19,East,90,3.0,4.0,29,0.00,,,0.48,meteohub,2013-05-08 11:02:00,
2013-05-08 07:03:00,52.9,21.6,30.19,East,90,2.0,4.0,29,0.00,,,0.48,meteohub,2013-05-08 11:03:00,
2013-05-08 07:05:00,52.9,21.6,30.19,East,90,4.0,4.0,29,0.00,,,0.48,meteohub,2013-05-08 11:05:00,
2013-05-08 07:07:00,52.9,21.6,30.19,East,90,3.0,4.0,29,0.00,,,0.48,meteohub,2013-05-08 11:07:00,
2013-05-08 07:08:00,52.9,21.6,30.19,East,90,2.0,4.0,29,0.00,,,0.48,meteohub,2013-05-08 11:08:00,
2013-05-08 07:09:00,53.1,21.6,30.19,East,90,2.0,4.0,29,0.00,,,0.48,meteohub,2013-05-08 11:09:00,
2013-05-08 07:11:00,53.2,21.7,30.19,East,90,1.0,5.0,29,0.00,,,0.48,meteohub,2013-05-08 11:11:00,
2013-05-08 07:12:00,53.2,21.7,30.19,SE,135,1.0,5.0,29,0.00,,,0.48,meteohub,2013-05-08 11:12:00,
2013-05-08 07:13:00,53.2,21.7,30.19,SE,135,2.0,5.0,29,0.00,,,0.48,meteohub,2013-05-08 11:13:00,
2013-05-08 07:14:00,53.2,21.7,30.19,East,90,2.0,5.0,29,0.00,,,0.48,meteohub,2013-05-08 11:14:00,
2013-05-08 07:15:00,53.2,21.7,30.19,East,90,2.0,5.0,29,0.00,,,0.48,meteohub,2013-05-08 11:15:00,
2013-05-08 07:17:00,53.2,21.7,30.19,East,90,2.0,5.0,29,0.00,,,0.48,meteohub,2013-05-08 11:17:00,
2013-05-08 07:18:00,53.4,22.8,30.19,East,90,2.0,5.0,30,0.00,,,0.48,meteohub,2013-05-08 11:18:00,
2013-05-08 07:19:00,53.4,22.8,30.19,East,90,2.0,5.0,30,0.00,,,0.48,meteohub,2013-05-08 11:19:00,
2013-05-08 07:20:00,53.4,22.8,30.19,SE,135,2.0,5.0,30,0.00,,,0.48,meteohub,2013-05-08 11:20:00,
2013-05-08 07:22:00,53.4,21.9,30.20,East,90,2.0,5.0,29,0.00,,,0.48,meteohub,2013-05-08 11:22:00,
2013-05-08 07:24:00,53.4,22.8,30.20,NE,45,3.0,5.0,30,0.00,,,0.48,meteohub,2013-05-08 11:24:00,
2013-05-08 07:25:00,53.4,22.8,30.20,NE,45,2.0,2.0,30,0.00,,,0.48,meteohub,2013-05-08 11:25:00,
2013-05-08 07:28:00,53.4,22.8,30.20,East,90,4.0,4.0,30,0.00,,,0.48,meteohub,2013-05-08 11:28:00,
2013-05-08 07:29:00,53.4,22.8,30.20,East,90,3.0,3.0,30,0.00,,,0.48,meteohub,2013-05-08 11:29:00,
2013-05-08 07:30:00,53.4,21.9,30.20,East,90,3.0,4.0,29,0.00,,,0.48,meteohub,2013-05-08 11:30:00,
2013-05-08 07:32:00,53.6,22.8,30.20,East,90,4.0,4.0,30,0.00,,,0.48,meteohub,2013-05-08 11:32:00,
2013-05-08 07:33:00,53.6,22.8,30.20,SE,135,3.0,4.0,30,0.00,,,0.48,meteohub,2013-05-08 11:33:00,
2013-05-08 07:35:00,53.6,22.8,30.20,East,90,2.0,4.0,30,0.00,,,0.48,meteohub,2013-05-08 11:35:00,
2013-05-08 07:38:00,53.8,23.0,30.20,NE,45,2.0,6.0,30,0.00,,,0.48,meteohub,2013-05-08 11:38:00,
2013-05-08 07:39:00,53.8,23.0,30.20,East,90,2.0,6.0,30,0.00,,,0.48,meteohub,2013-05-08 11:39:00,
2013-05-08 07:40:00,53.8,23.0,30.20,SE,135,2.0,6.0,30,0.00,,,0.48,meteohub,2013-05-08 11:40:00,
2013-05-08 07:41:00,53.8,23.0,30.20,East,90,2.0,6.0,30,0.00,,,0.48,meteohub,2013-05-08 11:41:00,
2013-05-08 07:44:00,54.3,23.5,30.20,SE,135,2.0,6.0,30,0.00,,,0.48,meteohub,2013-05-08 11:44:00,
2013-05-08 07:46:00,54.5,23.7,30.20,East,90,3.0,6.0,30,0.00,,,0.48,meteohub,2013-05-08 11:46:00,
2013-05-08 07:49:00,54.9,24.1,30.20,East,90,2.0,6.0,30,0.00,,,0.48,meteohub,2013-05-08 11:49:00,
2013-05-08 07:50:00,54.9,24.1,30.19,East,90,2.0,3.0,30,0.00,,,0.48,meteohub,2013-05-08 11:50:00,
2013-05-08 07:51:00,54.9,24.1,30.20,East,90,2.0,3.0,30,0.00,,,0.48,meteohub,2013-05-08 11:51:00,
2013-05-08 07:52:00,54.9,24.1,30.20,East,90,2.0,3.0,30,0.00,,,0.48,meteohub,2013-05-08 11:52:00,
2013-05-08 07:56:00,55.0,24.1,30.20,East,90,2.0,3.0,30,0.00,,,0.48,meteohub,2013-05-08 11:56:00,
2013-05-08 07:57:00,55.2,24.3,30.20,East,90,0.0,3.0,30,0.00,,,0.48,meteohub,2013-05-08 11:57:00,
2013-05-08 07:58:00,55.2,24.3,30.20,East,90,3.0,3.0,30,0.00,,,0.48,meteohub,2013-05-08 11:58:00,
2013-05-08 07:59:00,55.4,24.4,30.20,East,90,2.0,3.0,30,0.00,,,0.48,meteohub,2013-05-08 11:59:00,
2013-05-08 08:01:00,55.4,23.7,30.20,SE,135,2.0,3.0,29,0.00,,,0.48,meteohub,2013-05-08 12:01:00,
2013-05-08 08:02:00,55.4,23.7,30.20,East,90,2.0,3.0,29,0.00,,,0.48,meteohub,2013-05-08 12:02:00,
2013-05-08 08:03:00,55.6,23.9,30.20,East,90,2.0,3.0,29,0.00,,,0.48,meteohub,2013-05-08 12:03:00,
2013-05-08 08:05:00,55.9,24.1,30.20,SE,135,2.0,3.0,29,0.00,,,0.48,meteohub,2013-05-08 12:05:00,
2013-05-08 08:07:00,56.8,25.0,30.21,SE,135,3.0,3.0,29,0.00,,,0.48,meteohub,2013-05-08 12:07:00,
2013-05-08 08:08:00,57.0,25.0,30.20,SE,135,2.0,3.0,29,0.00,,,0.48,meteohub,2013-05-08 12:08:00,
2013-05-08 08:10:00,57.9,25.9,30.20,East,90,2.0,3.0,29,0.00,,,0.48,meteohub,2013-05-08 12:10:00,
2013-05-08 08:11:00,57.9,25.9,30.20,East,90,2.0,3.0,29,0.00,,,0.48,meteohub,2013-05-08 12:11:00,
2013-05-08 08:12:00,58.3,25.3,30.20,East,90,2.0,3.0,28,0.00,,,0.48,meteohub,2013-05-08 12:12:00,
2013-05-08 08:14:00,58.3,25.3,30.21,NE,45,2.0,3.0,28,0.00,,,0.48,meteohub,2013-05-08 12:14:00,
2013-05-08 08:15:00,58.5,24.6,30.20,East,90,2.0,3.0,27,0.00,,,0.48,meteohub,2013-05-08 12:15:00,
2013-05-08 08:16:00,58.5,24.6,30.20,East,90,2.0,3.0,27,0.00,,,0.48,meteohub,2013-05-08 12:16:00,
2013-05-08 08:18:00,59.0,24.1,30.21,East,90,3.0,3.0,26,0.00,,,0.48,meteohub,2013-05-08 12:18:00,
2013-05-08 08:20:00,59.2,22.5,30.21,East,90,4.0,4.0,24,0.00,,,0.48,meteohub,2013-05-08 12:20:00,
2013-05-08 08:21:00,59.2,21.4,30.20,East,90,3.0,3.0,23,0.00,,,0.48,meteohub,2013-05-08 12:21:00,
2013-05-08 08:23:00,59.4,19.4,30.21,North,0,2.0,3.0,21,0.00,,,0.48,meteohub,2013-05-08 12:23:00,
2013-05-08 08:25:00,59.4,18.3,30.21,SE,135,3.0,4.0,20,0.00,,,0.48,meteohub,2013-05-08 12:25:00,
2013-05-08 08:26:00,59.2,14.4,30.21,SE,135,2.0,4.0,17,0.00,,,0.48,meteohub,2013-05-08 12:26:00,
2013-05-08 08:27:00,59.2,14.4,30.21,SE,135,2.0,4.0,17,0.00,,,0.48,meteohub,2013-05-08 12:27:00,
2013-05-08 08:28:00,58.6,7.9,30.21,SE,135,3.0,4.0,13,0.00,,,0.48,meteohub,2013-05-08 12:28:00,
2013-05-08 08:30:00,58.5,4.1,30.21,SE,135,4.0,4.0,11,0.00,,,0.48,meteohub,2013-05-08 12:30:00,
2013-05-08 08:32:00,58.1,1.8,30.21,South,180,4.0,4.0,10,0.00,,,0.48,meteohub,2013-05-08 12:32:00,
2013-05-08 08:33:00,58.1,1.8,30.22,WSW,248,2.0,4.0,10,0.00,,,0.48,meteohub,2013-05-08 12:33:00,
2013-05-08 08:34:00,58.1,1.8,30.22,East,90,3.0,4.0,10,0.00,,,0.48,meteohub,2013-05-08 12:34:00,
2013-05-08 08:35:00,58.3,3.9,30.22,NE,45,2.0,4.0,11,0.00,,,0.48,meteohub,2013-05-08 12:35:00,
2013-05-08 08:38:00,58.5,4.1,30.21,East,90,2.0,4.0,11,0.00,,,0.48,meteohub,2013-05-08 12:38:00,
2013-05-08 08:40:00,58.5,4.1,30.22,SE,135,4.0,4.0,11,0.00,,,0.48,meteohub,2013-05-08 12:40:00,
2013-05-08 08:41:00,58.5,2.1,30.21,South,180,4.0,4.0,10,0.00,,,0.48,meteohub,2013-05-08 12:41:00,
2013-05-08 08:44:00,57.9,57.9,30.22,East,90,2.0,4.0,0,0.00,,,0.48,meteohub,2013-05-08 12:44:00,
2013-05-08 08:45:00,57.9,57.9,30.22,East,90,3.0,4.0,0,0.00,,,0.48,meteohub,2013-05-08 12:45:00,
2013-05-08 08:46:00,57.9,57.9,30.22,East,90,3.0,4.0,0,0.00,,,0.48,meteohub,2013-05-08 12:46:00,
2013-05-08 08:50:00,57.7,57.7,30.22,SE,135,2.0,4.0,0,0.00,,,0.48,meteohub,2013-05-08 12:50:00,
2013-05-08 08:51:00,57.7,57.7,30.21,South,180,2.0,4.0,0,0.00,,,0.48,meteohub,2013-05-08 12:51:00,
2013-05-08 08:52:00,57.7,57.7,30.22,NE,45,2.0,4.0,0,0.00,,,0.48,meteohub,2013-05-08 12:52:00,
2013-05-08 08:56:00,57.6,57.6,30.22,NE,45,4.0,4.0,0,0.00,,,0.48,meteohub,2013-05-08 12:56:00,
2013-05-08 08:57:00,57.6,57.6,30.21,East,90,4.0,4.0,0,0.00,,,0.48,meteohub,2013-05-08 12:57:00,
2013-05-08 08:58:00,57.6,57.6,30.22,East,90,2.0,4.0,0,0.00,,,0.48,meteohub,2013-05-08 12:58:00,
2013-05-08 09:01:00,57.7,57.7,30.22,East,90,2.0,4.0,0,0.00,,,0.48,meteohub,2013-05-08 13:01:00,
2013-05-08 09:02:00,58.5,58.5,30.21,WSW,248,2.0,4.0,0,0.00,,,0.48,meteohub,2013-05-08 13:02:00,
2013-05-08 09:03:00,58.5,58.5,30.21,WSW,248,2.0,4.0,0,0.00,,,0.48,meteohub,2013-05-08 13:03:00,
2013-05-08 09:04:00,59.0,59.0,30.22,WSW,248,2.0,4.0,0,0.00,,,0.48,meteohub,2013-05-08 13:04:00,
2013-05-08 09:06:00,59.4,59.4,30.21,SE,135,2.0,4.0,0,0.00,,,0.48,meteohub,2013-05-08 13:06:00,
2013-05-08 09:07:00,59.4,59.4,30.22,SE,135,3.0,4.0,0,0.00,,,0.48,meteohub,2013-05-08 13:07:00,
2013-05-08 09:08:00,59.2,59.2,30.22,West,270,4.0,4.0,0,0.00,,,0.48,meteohub,2013-05-08 13:08:00,
2013-05-08 09:10:00,59.2,59.2,30.21,South,180,3.0,4.0,0,0.00,,,0.48,meteohub,2013-05-08 13:10:00,
2013-05-08 09:12:00,59.0,59.0,30.22,WSW,248,2.0,4.0,0,0.00,,,0.48,meteohub,2013-05-08 13:12:00,
2013-05-08 09:13:00,59.0,59.0,30.22,SE,135,5.0,5.0,0,0.00,,,0.48,meteohub,2013-05-08 13:13:00,
2013-05-08 09:14:00,59.0,59.0,30.22,East,90,4.0,4.0,0,0.00,,,0.48,meteohub,2013-05-08 13:14:00,
2013-05-08 09:15:00,59.2,59.2,30.22,East,90,4.0,5.0,0,0.00,,,0.48,meteohub,2013-05-08 13:15:00,
2013-05-08 09:18:00,59.2,59.2,30.22,East,90,3.0,5.0,0,0.00,,,0.48,meteohub,2013-05-08 13:18:00,
2013-05-08 09:19:00,59.2,59.2,30.21,South,180,4.0,5.0,0,0.00,,,0.48,meteohub,2013-05-08 13:19:00,
2013-05-08 09:20:00,59.2,59.2,30.22,NE,45,4.0,5.0,0,0.00,,,0.48,meteohub,2013-05-08 13:20:00,
2013-05-08 09:21:00,59.2,59.2,30.22,East,90,4.0,5.0,0,0.00,,,0.48,meteohub,2013-05-08 13:21:00,
2013-05-08 09:23:00,59.5,59.5,30.21,SE,135,4.0,5.0,0,0.00,,,0.48,meteohub,2013-05-08 13:23:00,
2013-05-08 09:24:00,59.7,59.7,30.22,NE,45,4.0,5.0,0,0.00,,,0.48,meteohub,2013-05-08 13:24:00,
2013-05-08 09:26:00,60.3,60.3,30.21,South,180,4.0,5.0,0,0.00,,,0.48,meteohub,2013-05-08 13:26:00,
2013-05-08 09:28:00,60.8,60.8,30.22,SE,135,4.0,5.0,0,0.00,,,0.48,meteohub,2013-05-08 13:28:00,
2013-05-08 09:29:00,61.0,61.0,30.22,SE,135,4.0,5.0,0,0.00,,,0.48,meteohub,2013-05-08 13:29:00,
2013-05-08 09:32:00,61.0,61.0,30.22,SE,135,4.0,8.0,0,0.00,,,0.48,meteohub,2013-05-08 13:32:00,
2013-05-08 09:34:00,60.6,60.6,30.22,NE,45,5.0,8.0,0,0.00,,,0.48,meteohub,2013-05-08 13:34:00,
2013-05-08 09:35:00,60.4,60.4,30.22,NE,45,7.0,8.0,0,0.00,,,0.48,meteohub,2013-05-08 13:35:00,
2013-05-08 09:38:00,60.4,60.4,30.22,East,90,6.0,8.0,0,0.00,,,0.48,meteohub,2013-05-08 13:38:00,
2013-05-08 09:39:00,60.3,60.3,30.22,East,90,5.0,8.0,0,0.00,,,0.48,meteohub,2013-05-08 13:39:00,
2013-05-08 09:40:00,60.1,60.1,30.22,NE,45,5.0,8.0,0,0.00,,,0.48,meteohub,2013-05-08 13:40:00,
2013-05-08 09:42:00,59.7,59.7,30.22,SE,135,3.0,8.0,0,0.00,,,0.48,meteohub,2013-05-08 13:42:00,
2013-05-08 09:43:00,59.7,59.7,30.22,ESE,113,3.0,8.0,0,0.00,,,0.48,meteohub,2013-05-08 13:43:00,
2013-05-08 09:46:00,59.9,59.9,30.22,South,180,5.0,8.0,0,0.00,,,0.48,meteohub,2013-05-08 13:46:00,
2013-05-08 09:47:00,59.9,59.9,30.21,South,180,7.0,8.0,0,0.00,,,0.48,meteohub,2013-05-08 13:47:00,
2013-05-08 09:48:00,60.1,60.1,30.21,SE,135,3.0,8.0,0,0.00,,,0.48,meteohub,2013-05-08 13:48:00,
2013-05-08 09:51:00,61.3,61.3,30.21,South,180,3.0,8.0,0,0.00,,,0.48,meteohub,2013-05-08 13:51:00,
2013-05-08 09:52:00,61.9,61.9,30.22,South,180,2.0,8.0,0,0.00,,,0.48,meteohub,2013-05-08 13:52:00,
2013-05-08 09:53:00,62.2,62.2,30.21,West,270,4.0,8.0,0,0.00,,,0.48,meteohub,2013-05-08 13:53:00,
2013-05-08 09:54:00,62.4,62.4,30.22,SE,135,7.0,8.0,0,0.00,,,0.48,meteohub,2013-05-08 13:54:00,
2013-05-08 09:57:00,63.1,63.1,30.21,East,90,2.0,8.0,0,0.00,,,0.48,meteohub,2013-05-08 13:57:00,
2013-05-08 09:59:00,63.3,63.3,30.21,East,90,3.0,8.0,0,0.00,,,0.48,meteohub,2013-05-08 13:59:00,
2013-05-08 10:00:00,63.5,63.5,30.21,East,90,4.0,8.0,0,0.00,,,0.48,meteohub,2013-05-08 14:00:00,
2013-05-08 10:03:00,63.0,63.0,30.21,East,90,5.0,8.0,0,0.00,,,0.48,meteohub,2013-05-08 14:03:00,
2013-05-08 10:04:00,62.8,62.8,30.22,East,90,2.0,8.0,0,0.00,,,0.48,meteohub,2013-05-08 14:04:00,
2013-05-08 10:05:00,63.0,63.0,30.21,East,90,4.0,7.0,0,0.00,,,0.48,meteohub,2013-05-08 14:05:00,
2013-05-08 10:08:00,63.0,63.0,30.21,East,90,5.0,7.0,0,0.00,,,0.48,meteohub,2013-05-08 14:08:00,
2013-05-08 10:09:00,62.8,62.8,30.21,East,90,6.0,7.0,0,0.00,,,0.48,meteohub,2013-05-08 14:09:00,
2013-05-08 10:11:00,62.2,62.2,30.21,East,90,2.0,7.0,0,0.00,,,0.48,meteohub,2013-05-08 14:11:00,
2013-05-08 10:13:00,62.1,62.1,30.21,SE,135,4.0,7.0,0,0.00,,,0.48,meteohub,2013-05-08 14:13:00,
2013-05-08 10:14:00,62.2,62.2,30.21,North,0,4.0,7.0,0,0.00,,,0.48,meteohub,2013-05-08 14:14:00,
2013-05-08 10:16:00,62.2,62.2,30.21,North,0,4.0,7.0,0,0.00,,,0.48,meteohub,2013-05-08 14:16:00,
2013-05-08 10:17:00,63.0,63.0,30.21,East,90,3.0,7.0,0,0.00,,,0.48,meteohub,2013-05-08 14:17:00,
2013-05-08 10:18:00,63.7,63.7,30.21,East,90,5.0,7.0,0,0.00,,,0.48,meteohub,2013-05-08 14:18:00,
2013-05-08 10:19:00,63.7,63.7,30.21,East,90,5.0,7.0,0,0.00,,,0.48,meteohub,2013-05-08 14:19:00,
2013-05-08 10:22:00,63.9,63.9,30.22,East,90,4.0,7.0,0,0.00,,,0.48,meteohub,2013-05-08 14:22:00,
2013-05-08 10:24:00,63.7,63.7,30.22,East,90,4.0,7.0,0,0.00,,,0.48,meteohub,2013-05-08 14:24:00,
2013-05-08 10:25:00,63.5,63.5,30.21,East,90,7.0,7.0,0,0.00,,,0.48,meteohub,2013-05-08 14:25:00,
2013-05-08 10:28:00,62.6,62.6,30.21,SE,135,4.0,6.0,0,0.00,,,0.48,meteohub,2013-05-08 14:28:00,
2013-05-08 10:29:00,62.2,62.2,30.22,South,180,4.0,6.0,0,0.00,,,0.48,meteohub,2013-05-08 14:29:00,
2013-05-08 10:30:00,62.2,62.2,30.22,South,180,4.0,8.0,0,0.00,,,0.48,meteohub,2013-05-08 14:30:00,
2013-05-08 10:31:00,62.2,62.2,30.22,South,180,4.0,8.0,0,0.00,,,0.48,meteohub,2013-05-08 14:31:00,
2013-05-08 10:35:00,61.9,61.9,30.22,SE,135,3.0,8.0,0,0.00,,,0.48,meteohub,2013-05-08 14:35:00,
2013-05-08 10:36:00,62.1,62.1,30.22,East,90,4.0,8.0,0,0.00,,,0.48,meteohub,2013-05-08 14:36:00,
2013-05-08 10:38:00,62.4,62.4,30.22,SE,135,4.0,8.0,0,0.00,,,0.48,meteohub,2013-05-08 14:38:00,
2013-05-08 10:40:00,63.1,63.1,30.22,NE,45,5.0,8.0,0,0.00,,,0.48,meteohub,2013-05-08 14:40:00,
2013-05-08 10:41:00,63.3,63.3,30.22,SE,135,4.0,8.0,0,0.00,,,0.48,meteohub,2013-05-08 14:41:00,
2013-05-08 10:42:00,63.3,63.3,30.22,WSW,248,2.0,8.0,0,0.00,,,0.48,meteohub,2013-05-08 14:42:00,
2013-05-08 10:43:00,63.3,63.3,30.22,SE,135,3.0,8.0,0,0.00,,,0.48,meteohub,2013-05-08 14:43:00,
2013-05-08 10:45:00,63.3,63.3,30.22,South,180,5.0,5.0,0,0.00,,,0.48,meteohub,2013-05-08 14:45:00,
2013-05-08 10:46:00,63.1,63.1,30.22,South,180,5.0,5.0,0,0.00,,,0.48,meteohub,2013-05-08 14:46:00,
2013-05-08 10:48:00,63.1,63.1,30.22,SE,135,4.0,5.0,0,0.00,,,0.48,meteohub,2013-05-08 14:48:00,
2013-05-08 10:49:00,63.5,63.5,30.22,South,180,3.0,5.0,0,0.00,,,0.48,meteohub,2013-05-08 14:49:00,
2013-05-08 10:50:00,63.7,63.7,30.21,East,90,5.0,5.0,0,0.00,,,0.48,meteohub,2013-05-08 14:50:00,
2013-05-08 10:52:00,64.0,64.0,30.21,East,90,4.0,5.0,0,0.00,,,0.48,meteohub,2013-05-08 14:52:00,
2013-05-08 10:54:00,64.0,64.0,30.22,East,90,4.0,5.0,0,0.00,,,0.48,meteohub,2013-05-08 14:54:00,
2013-05-08 10:55:00,63.7,63.7,30.21,East,90,3.0,5.0,0,0.00,,,0.48,meteohub,2013-05-08 14:55:00,
2013-05-08 10:56:00,63.5,63.5,30.21,East,90,5.0,7.0,0,0.00,,,0.48,meteohub,2013-05-08 14:56:00,
2013-05-08 10:57:00,63.3,63.3,30.22,SE,135,4.0,7.0,0,0.00,,,0.48,meteohub,2013-05-08 14:57:00,
2013-05-08 11:00:00,63.1,63.1,30.21,SE,135,3.0,7.0,0,0.00,,,0.48,meteohub,2013-05-08 15:00:00,
2013-05-08 11:01:00,63.1,63.1,30.21,SE,135,3.0,7.0,0,0.00,,,0.48,meteohub,2013-05-08 15:01:00,
2013-05-08 11:02:00,63.1,63.1,30.21,ENE,68,4.0,7.0,0,0.00,,,0.48,meteohub,2013-05-08 15:02:00,
2013-05-08 11:03:00,63.1,63.1,30.21,ENE,68,4.0,7.0,0,0.00,,,0.48,meteohub,2013-05-08 15:03:00,
2013-05-08 11:05:00,63.0,63.0,30.21,North,0,4.0,7.0,0,0.00,,,0.48,meteohub,2013-05-08 15:05:00,
2013-05-08 11:06:00,63.0,63.0,30.21,North,0,4.0,7.0,0,0.00,,,0.48,meteohub,2013-05-08 15:06:00,
2013-05-08 11:07:00,63.0,63.0,30.21,SE,135,2.0,7.0,0,0.00,,,0.48,meteohub,2013-05-08 15:07:00,
2013-05-08 11:08:00,63.0,63.0,30.21,SE,135,2.0,7.0,0,0.00,,,0.48,meteohub,2013-05-08 15:08:00,
2013-05-08 11:11:00,63.0,63.0,30.21,East,90,4.0,5.0,0,0.00,,,0.48,meteohub,2013-05-08 15:11:00,
2013-05-08 11:12:00,62.8,62.8,30.21,East,90,3.0,5.0,0,0.00,,,0.48,meteohub,2013-05-08 15:12:00,
2013-05-08 11:13:00,62.8,62.8,30.20,SE,135,4.0,5.0,0,0.00,,,0.48,meteohub,2013-05-08 15:13:00,
2013-05-08 11:15:00,63.0,63.0,30.20,South,180,2.0,5.0,0,0.00,,,0.48,meteohub,2013-05-08 15:15:00,
2013-05-08 11:17:00,63.1,63.1,30.20,South,180,4.0,4.0,0,0.00,,,0.48,meteohub,2013-05-08 15:17:00,
2013-05-08 11:18:00,63.1,63.1,30.20,East,90,3.0,4.0,0,0.00,,,0.48,meteohub,2013-05-08 15:18:00,
2013-05-08 11:20:00,63.3,63.3,30.20,East,90,4.0,4.0,0,0.00,,,0.48,meteohub,2013-05-08 15:20:00,
2013-05-08 11:24:00,63.5,63.5,30.20,SE,135,4.0,4.0,0,0.00,,,0.48,meteohub,2013-05-08 15:24:00,
2013-05-08 11:25:00,63.7,63.7,30.20,SE,135,4.0,5.0,0,0.00,,,0.48,meteohub,2013-05-08 15:25:00,
2013-05-08 11:26:00,63.7,63.7,30.20,SE,135,3.0,5.0,0,0.00,,,0.48,meteohub,2013-05-08 15:26:00,
2013-05-08 11:29:00,64.0,64.0,30.20,East,90,4.0,5.0,0,0.00,,,0.48,meteohub,2013-05-08 15:29:00,
2013-05-08 11:30:00,64.0,64.0,30.20,East,90,4.0,5.0,0,0.00,,,0.48,meteohub,2013-05-08 15:30:00,
2013-05-08 11:31:00,64.0,64.0,30.21,East,90,4.0,5.0,0,0.00,,,0.48,meteohub,2013-05-08 15:31:00,
2013-05-08 11:32:00,64.4,64.4,30.21,East,90,3.0,5.0,0,0.00,,,0.48,meteohub,2013-05-08 15:32:00,
2013-05-08 11:36:00,64.6,64.6,30.21,NE,45,4.0,5.0,0,0.00,,,0.48,meteohub,2013-05-08 15:36:00,
2013-05-08 11:37:00,64.6,64.6,30.21,NE,45,4.0,5.0,0,0.00,,,0.48,meteohub,2013-05-08 15:37:00,
2013-05-08 11:38:00,64.6,64.6,30.21,East,90,4.0,5.0,0,0.00,,,0.48,meteohub,2013-05-08 15:38:00,
2013-05-08 11:43:00,64.9,64.9,30.21,East,90,3.0,7.0,0,0.00,,,0.48,meteohub,2013-05-08 15:43:00,
2013-05-08 11:44:00,65.3,65.3,30.21,East,90,3.0,7.0,0,0.00,,,0.48,meteohub,2013-05-08 15:44:00,
2013-05-08 11:48:00,65.5,65.5,30.21,North,0,3.0,7.0,0,0.00,,,0.48,meteohub,2013-05-08 15:48:00,
2013-05-08 11:49:00,65.5,65.5,30.21,North,0,3.0,7.0,0,0.00,,,0.48,meteohub,2013-05-08 15:49:00,
2013-05-08 11:50:00,65.5,65.5,30.21,North,0,3.0,7.0,0,0.00,,,0.48,meteohub,2013-05-08 15:50:00,
2013-05-08 11:53:00,66.9,66.9,30.21,South,180,6.0,7.0,0,0.00,,,0.48,meteohub,2013-05-08 15:53:00,
2013-05-08 11:54:00,67.1,67.1,30.20,South,180,4.0,7.0,0,0.00,,,0.48,meteohub,2013-05-08 15:54:00,
2013-05-08 11:55:00,67.5,67.5,30.21,SE,135,3.0,6.0,0,0.00,,,0.48,meteohub,2013-05-08 15:55:00,
2013-05-08 11:56:00,68.0,68.0,30.20,SE,135,5.0,6.0,0,0.00,,,0.48,meteohub,2013-05-08 15:56:00,
2013-05-08 11:58:00,68.2,68.2,30.20,NW,315,1.0,6.0,0,0.00,,,0.48,meteohub,2013-05-08 15:58:00,
2013-05-08 11:59:00,68.4,68.4,30.20,SE,135,2.0,6.0,0,0.00,,,0.48,meteohub,2013-05-08 15:59:00,
2013-05-08 12:00:00,68.5,68.5,30.20,East,90,3.0,6.0,0,0.00,,,0.48,meteohub,2013-05-08 16:00:00,
2013-05-08 12:01:00,68.5,68.5,30.20,East,90,4.0,6.0,0,0.00,,,0.48,meteohub,2013-05-08 16:01:00,
2013-05-08 12:02:00,68.4,68.4,30.20,NE,45,5.0,6.0,0,0.00,,,0.48,meteohub,2013-05-08 16:02:00,
2013-05-08 12:05:00,67.6,67.6,30.20,SE,135,4.0,6.0,0,0.00,,,0.48,meteohub,2013-05-08 16:05:00,
2013-05-08 12:06:00,67.6,67.6,30.20,SE,135,4.0,6.0,0,0.00,,,0.48,meteohub,2013-05-08 16:06:00,
2013-05-08 12:07:00,67.6,67.6,30.21,East,90,5.0,6.0,0,0.00,,,0.48,meteohub,2013-05-08 16:07:00,
2013-05-08 12:10:00,66.9,66.9,30.21,SE,135,5.0,8.0,0,0.00,,,0.48,meteohub,2013-05-08 16:10:00,
2013-05-08 12:11:00,66.9,66.9,30.21,SE,135,5.0,8.0,0,0.00,,,0.48,meteohub,2013-05-08 16:11:00,
2013-05-08 12:12:00,66.9,66.9,30.21,East,90,4.0,8.0,0,0.00,,,0.48,meteohub,2013-05-08 16:12:00,
2013-05-08 12:13:00,66.7,66.7,30.21,SE,135,5.0,8.0,0,0.00,,,0.48,meteohub,2013-05-08 16:13:00,
2013-05-08 12:16:00,66.9,66.9,30.20,East,90,2.0,8.0,0,0.00,,,0.48,meteohub,2013-05-08 16:16:00,
2013-05-08 12:17:00,66.9,66.9,30.20,East,90,3.0,8.0,0,0.00,,,0.48,meteohub,2013-05-08 16:17:00,
2013-05-08 12:18:00,66.9,66.9,30.20,NE,45,5.0,8.0,0,0.00,,,0.48,meteohub,2013-05-08 16:18:00,
2013-05-08 12:19:00,66.7,66.7,30.20,East,90,7.0,8.0,0,0.00,,,0.48,meteohub,2013-05-08 16:19:00,
2013-05-08 12:21:00,66.9,66.9,30.20,North,0,2.0,8.0,0,0.00,,,0.48,meteohub,2013-05-08 16:21:00,
2013-05-08 12:23:00,66.9,66.9,30.20,East,90,2.0,8.0,0,0.00,,,0.48,meteohub,2013-05-08 16:23:00,
2013-05-08 12:25:00,67.3,67.3,30.20,East,90,4.0,8.0,0,0.00,,,0.48,meteohub,2013-05-08 16:25:00,
2013-05-08 12:26:00,67.5,67.5,30.20,East,90,4.0,7.0,0,0.00,,,0.48,meteohub,2013-05-08 16:26:00,
2013-05-08 12:27:00,67.5,67.5,30.20,East,90,4.0,7.0,0,0.00,,,0.48,meteohub,2013-05-08 16:27:00,
2013-05-08 12:28:00,67.5,67.5,30.20,SE,135,5.0,7.0,0,0.00,,,0.48,meteohub,2013-05-08 16:28:00,
2013-05-08 12:29:00,67.5,67.5,30.19,SE,135,4.0,7.0,0,0.00,,,0.48,meteohub,2013-05-08 16:29:00,
2013-05-08 12:30:00,67.6,67.6,30.19,North,0,3.0,7.0,0,0.00,,,0.48,meteohub,2013-05-08 16:30:00,
2013-05-08 12:32:00,67.8,67.8,30.19,SE,135,3.0,7.0,0,0.00,,,0.48,meteohub,2013-05-08 16:32:00,
2013-05-08 12:33:00,68.0,68.0,30.19,East,90,4.0,7.0,0,0.00,,,0.48,meteohub,2013-05-08 16:33:00,
2013-05-08 12:34:00,68.0,68.0,30.19,East,90,6.0,7.0,0,0.00,,,0.48,meteohub,2013-05-08 16:34:00,
2013-05-08 12:35:00,68.0,68.0,30.20,East,90,6.0,6.0,0,0.00,,,0.48,meteohub,2013-05-08 16:35:00,
2013-05-08 12:37:00,68.0,68.0,30.20,East,90,5.0,5.0,0,0.00,,,0.48,meteohub,2013-05-08 16:37:00,
2013-05-08 12:39:00,68.2,68.2,30.19,South,180,4.0,5.0,0,0.00,,,0.48,meteohub,2013-05-08 16:39:00,
2013-05-08 12:41:00,68.4,68.4,30.19,East,90,6.0,6.0,0,0.00,,,0.48,meteohub,2013-05-08 16:41:00,
2013-05-08 12:42:00,68.4,68.4,30.19,NE,45,4.0,6.0,0,0.00,,,0.48,meteohub,2013-05-08 16:42:00,
2013-05-08 12:43:00,68.5,68.5,30.19,NE,45,2.0,6.0,0,0.00,,,0.48,meteohub,2013-05-08 16:43:00,
2013-05-08 12:45:00,69.1,69.1,30.19,East,90,4.0,6.0,0,0.00,,,0.48,meteohub,2013-05-08 16:45:00,
2013-05-08 12:46:00,69.1,69.1,30.19,East,90,4.0,6.0,0,0.00,,,0.48,meteohub,2013-05-08 16:46:00,
2013-05-08 12:47:00,69.1,69.1,30.19,East,90,4.0,6.0,0,0.00,,,0.48,meteohub,2013-05-08 16:47:00,
2013-05-08 12:48:00,69.1,69.1,30.19,East,90,4.0,6.0,0,0.00,,,0.48,meteohub,2013-05-08 16:48:00,
2013-05-08 12:49:00,69.1,69.1,30.19,East,90,4.0,6.0,0,0.00,,,0.48,meteohub,2013-05-08 16:49:00,
2013-05-08 12:51:00,69.1,69.1,30.19,East,90,4.0,6.0,0,0.00,,,0.48,meteohub,2013-05-08 16:51:00,
2013-05-08 12:53:00,70.5,70.5,30.19,North,0,5.0,6.0,0,0.00,,,0.48,meteohub,2013-05-08 16:53:00,
2013-05-08 12:54:00,70.5,70.5,30.19,East,90,4.0,6.0,0,0.00,,,0.48,meteohub,2013-05-08 16:54:00,
2013-05-08 12:56:00,71.2,71.2,30.19,SE,135,3.0,6.0,0,0.00,,,0.48,meteohub,2013-05-08 16:56:00,
2013-05-08 12:57:00,71.4,71.4,30.19,South,180,5.0,6.0,0,0.00,,,0.48,meteohub,2013-05-08 16:57:00,
2013-05-08 12:58:00,71.8,71.8,30.19,SE,135,5.0,6.0,0,0.00,,,0.48,meteohub,2013-05-08 16:58:00,
2013-05-08 13:00:00,71.8,71.8,30.19,SE,135,4.0,6.0,0,0.00,,,0.48,meteohub,2013-05-08 17:00:00,
2013-05-08 13:01:00,71.8,71.8,30.19,SE,135,4.0,5.0,0,0.00,,,0.48,meteohub,2013-05-08 17:01:00,
2013-05-08 13:02:00,71.8,71.8,30.19,SE,135,4.0,5.0,0,0.00,,,0.48,meteohub,2013-05-08 17:02:00,
2013-05-08 13:04:00,71.8,71.8,30.19,SE,135,4.0,5.0,0,0.00,,,0.48,meteohub,2013-05-08 17:04:00,
2013-05-08 13:05:00,71.8,71.8,30.19,SE,135,4.0,5.0,0,0.00,,,0.48,meteohub,2013-05-08 17:05:00,
2013-05-08 13:07:00,71.8,71.8,30.19,SE,135,4.0,5.0,0,0.00,,,0.48,meteohub,2013-05-08 17:07:00,
2013-05-08 13:09:00,69.6,69.6,30.19,West,270,4.0,5.0,0,0.00,,,0.48,meteohub,2013-05-08 17:09:00,
2013-05-08 13:10:00,69.6,69.6,30.19,South,180,4.0,5.0,0,0.00,,,0.48,meteohub,2013-05-08 17:10:00,
2013-05-08 13:12:00,69.6,69.6,30.19,East,90,4.0,5.0,0,0.00,,,0.48,meteohub,2013-05-08 17:12:00,
2013-05-08 13:13:00,69.6,69.6,30.19,East,90,4.0,5.0,0,0.00,,,0.48,meteohub,2013-05-08 17:13:00,
2013-05-08 13:14:00,69.1,69.1,30.19,SE,135,3.0,5.0,0,0.00,,,0.48,meteohub,2013-05-08 17:14:00,
2013-05-08 13:17:00,68.7,68.7,30.19,South,180,2.0,4.0,0,0.00,,,0.48,meteohub,2013-05-08 17:17:00,
2013-05-08 13:18:00,68.7,68.7,30.19,South,180,2.0,4.0,0,0.00,,,0.48,meteohub,2013-05-08 17:18:00,
2013-05-08 13:19:00,68.7,68.7,30.19,NW,315,2.0,4.0,0,0.00,,,0.48,meteohub,2013-05-08 17:19:00,
2013-05-08 13:23:00,69.3,69.3,30.19,West,270,1.0,4.0,0,0.00,,,0.48,meteohub,2013-05-08 17:23:00,
2013-05-08 13:24:00,69.6,69.6,30.18,West,270,1.0,4.0,0,0.00,,,0.48,meteohub,2013-05-08 17:24:00,
2013-05-08 13:26:00,70.2,70.2,30.18,South,180,3.0,4.0,0,0.00,,,0.48,meteohub,2013-05-08 17:26:00,
2013-05-08 13:28:00,71.1,71.1,30.19,East,90,3.0,4.0,0,0.00,,,0.48,meteohub,2013-05-08 17:28:00,
2013-05-08 13:29:00,71.2,71.2,30.18,SE,135,4.0,4.0,0,0.00,,,0.48,meteohub,2013-05-08 17:29:00,
2013-05-08 13:31:00,71.4,71.4,30.18,East,90,4.0,4.0,0,0.00,,,0.48,meteohub,2013-05-08 17:31:00,
2013-05-08 13:32:00,71.2,71.2,30.19,East,90,4.0,4.0,0,0.00,,,0.48,meteohub,2013-05-08 17:32:00,
2013-05-08 13:34:00,70.7,70.7,30.18,WSW,248,3.0,4.0,0,0.00,,,0.48,meteohub,2013-05-08 17:34:00,
2013-05-08 13:35:00,70.5,70.5,30.18,South,180,4.0,4.0,0,0.00,,,0.48,meteohub,2013-05-08 17:35:00,
2013-05-08 13:36:00,70.0,70.0,30.18,East,90,2.0,4.0,0,0.00,,,0.48,meteohub,2013-05-08 17:36:00,
2013-05-08 13:37:00,69.8,69.8,30.18,NE,45,2.0,4.0,0,0.00,,,0.48,meteohub,2013-05-08 17:37:00,
2013-05-08 13:38:00,69.6,69.6,30.18,NE,45,4.0,4.0,0,0.00,,,0.48,meteohub,2013-05-08 17:38:00,
2013-05-08 13:39:00,69.6,69.6,30.18,East,90,2.0,4.0,0,0.00,,,0.48,meteohub,2013-05-08 17:39:00,
2013-05-08 13:40:00,69.6,69.6,30.18,East,90,3.0,4.0,0,0.00,,,0.48,meteohub,2013-05-08 17:40:00,
2013-05-08 13:42:00,69.6,69.6,30.18,NE,45,2.0,4.0,0,0.00,,,0.48,meteohub,2013-05-08 17:42:00,
2013-05-08 13:43:00,69.8,69.8,30.18,East,90,4.0,4.0,0,0.00,,,0.48,meteohub,2013-05-08 17:43:00,
2013-05-08 13:44:00,69.6,69.6,30.18,East,90,7.0,7.0,0,0.00,,,0.48,meteohub,2013-05-08 17:44:00,
2013-05-08 13:46:00,69.1,69.1,30.17,NW,315,3.0,7.0,0,0.00,,,0.48,meteohub,2013-05-08 17:46:00,
2013-05-08 13:47:00,68.9,68.9,30.18,NE,45,2.0,7.0,0,0.00,,,0.48,meteohub,2013-05-08 17:47:00,
2013-05-08 13:48:00,68.7,68.7,30.17,NE,45,4.0,7.0,0,0.00,,,0.48,meteohub,2013-05-08 17:48:00,
2013-05-08 13:49:00,68.5,68.5,30.18,NW,315,6.0,7.0,0,0.00,,,0.48,meteohub,2013-05-08 17:49:00,
2013-05-08 13:52:00,68.2,68.2,30.18,NE,45,5.0,7.0,0,0.00,,,0.48,meteohub,2013-05-08 17:52:00,
2013-05-08 13:53:00,68.0,68.0,30.17,South,180,4.0,7.0,0,0.00,,,0.48,meteohub,2013-05-08 17:53:00,
2013-05-08 13:57:00,68.4,68.4,30.17,NE,45,7.0,8.0,0,0.00,,,0.48,meteohub,2013-05-08 17:57:00,
2013-05-08 13:58:00,68.4,68.4,30.17,South,180,4.0,8.0,0,0.00,,,0.48,meteohub,2013-05-08 17:58:00,
2013-05-08 13:59:00,68.4,68.4,30.17,East,90,5.0,8.0,0,0.00,,,0.48,meteohub,2013-05-08 17:59:00,
2013-05-08 14:03:00,68.2,68.2,30.17,East,90,8.0,8.0,0,0.00,,,0.48,meteohub,2013-05-08 18:03:00,
2013-05-08 14:04:00,68.2,68.2,30.17,East,90,8.0,8.0,0,0.00,,,0.48,meteohub,2013-05-08 18:04:00,
2013-05-08 14:05:00,68.2,68.2,30.17,East,90,8.0,8.0,0,0.00,,,0.48,meteohub,2013-05-08 18:05:00,
2013-05-08 14:08:00,67.5,67.5,30.17,North,0,6.0,8.0,0,0.00,,,0.48,meteohub,2013-05-08 18:08:00,
2013-05-08 14:09:00,67.8,67.8,30.17,East,90,2.0,8.0,0,0.00,,,0.48,meteohub,2013-05-08 18:09:00,
2013-05-08 14:10:00,68.5,68.5,30.17,SE,135,5.0,8.0,0,0.00,,,0.48,meteohub,2013-05-08 18:10:00,
2013-05-08 14:12:00,69.3,69.3,30.17,SE,135,3.0,8.0,0,0.00,,,0.48,meteohub,2013-05-08 18:12:00,
2013-05-08 14:13:00,69.8,69.8,30.17,NE,45,2.0,8.0,0,0.00,,,0.48,meteohub,2013-05-08 18:13:00,
2013-05-08 14:15:00,70.0,70.0,30.17,NW,315,2.0,8.0,0,0.00,,,0.48,meteohub,2013-05-08 18:15:00,
2013-05-08 14:16:00,70.2,70.2,30.17,North,0,2.0,8.0,0,0.00,,,0.48,meteohub,2013-05-08 18:16:00,
2013-05-08 14:17:00,70.2,70.2,30.17,South,180,2.0,8.0,0,0.00,,,0.48,meteohub,2013-05-08 18:17:00,
2013-05-08 14:20:00,70.0,70.0,30.17,West,270,2.0,8.0,0,0.00,,,0.48,meteohub,2013-05-08 18:20:00,
2013-05-08 14:21:00,70.0,70.0,30.17,NW,315,2.0,8.0,0,0.00,,,0.48,meteohub,2013-05-08 18:21:00,
2013-05-08 14:22:00,69.8,69.8,30.17,West,270,3.0,8.0,0,0.00,,,0.48,meteohub,2013-05-08 18:22:00,
2013-05-08 14:23:00,69.3,69.3,30.17,East,90,2.0,8.0,0,0.00,,,0.48,meteohub,2013-05-08 18:23:00,
2013-05-08 14:26:00,69.1,69.1,30.17,SE,135,2.0,5.0,0,0.00,,,0.48,meteohub,2013-05-08 18:26:00,
2013-05-08 14:27:00,69.1,69.1,30.17,SE,135,2.0,5.0,0,0.00,,,0.48,meteohub,2013-05-08 18:27:00,
2013-05-08 14:29:00,68.9,68.9,30.17,West,270,2.0,5.0,0,0.00,,,0.48,meteohub,2013-05-08 18:29:00,
2013-05-08 14:32:00,68.9,68.9,30.17,NE,45,3.0,3.0,0,0.00,,,0.48,meteohub,2013-05-08 18:32:00,
2013-05-08 14:33:00,68.9,68.9,30.17,North,0,4.0,4.0,0,0.00,,,0.48,meteohub,2013-05-08 18:33:00,
2013-05-08 14:34:00,69.1,69.1,30.17,NE,45,4.0,4.0,0,0.00,,,0.48,meteohub,2013-05-08 18:34:00,
2013-05-08 14:37:00,69.1,69.1,30.17,North,0,2.0,4.0,0,0.00,,,0.48,meteohub,2013-05-08 18:37:00,
2013-05-08 14:38:00,69.1,69.1,30.17,North,0,2.0,4.0,0,0.00,,,0.48,meteohub,2013-05-08 18:38:00,
2013-05-08 14:39:00,68.9,68.9,30.17,North,0,4.0,4.0,0,0.00,,,0.48,meteohub,2013-05-08 18:39:00,
2013-05-08 14:40:00,68.9,68.9,30.17,North,0,4.0,6.0,0,0.00,,,0.48,meteohub,2013-05-08 18:40:00,
2013-05-08 14:43:00,68.7,68.7,30.16,NW,315,4.0,6.0,0,0.00,,,0.48,meteohub,2013-05-08 18:43:00,
2013-05-08 14:44:00,69.1,69.1,30.16,North,0,8.0,8.0,0,0.00,,,0.48,meteohub,2013-05-08 18:44:00,
2013-05-08 14:45:00,69.1,69.1,30.16,West,270,6.0,6.0,0,0.00,,,0.48,meteohub,2013-05-08 18:45:00,
2013-05-08 14:46:00,69.3,69.3,30.16,NW,315,5.0,7.0,0,0.00,,,0.48,meteohub,2013-05-08 18:46:00,
2013-05-08 14:48:00,69.6,69.6,30.16,North,0,8.0,8.0,0,0.00,,,0.48,meteohub,2013-05-08 18:48:00,
2013-05-08 14:49:00,69.8,69.8,30.16,NW,315,5.0,7.0,0,0.00,,,0.48,meteohub,2013-05-08 18:49:00,
2013-05-08 14:51:00,70.3,70.3,30.16,NW,315,9.0,10.0,0,0.00,,,0.48,meteohub,2013-05-08 18:51:00,
2013-05-08 14:52:00,70.5,70.5,30.16,NW,315,8.0,10.0,0,0.00,,,0.48,meteohub,2013-05-08 18:52:00,
2013-05-08 14:55:00,69.6,69.6,30.16,South,180,11.0,11.0,0,0.00,,,0.48,meteohub,2013-05-08 18:55:00,
2013-05-08 14:56:00,69.1,69.1,30.16,NW,315,3.0,11.0,0,0.00,,,0.48,meteohub,2013-05-08 18:56:00,
2013-05-08 14:58:00,68.5,68.5,30.16,NE,45,4.0,11.0,0,0.00,,,0.48,meteohub,2013-05-08 18:58:00,
2013-05-08 15:01:00,67.8,67.8,30.16,NE,45,6.0,11.0,0,0.00,,,0.48,meteohub,2013-05-08 19:01:00,
2013-05-08 15:02:00,67.8,67.8,30.16,NE,45,6.0,11.0,0,0.00,,,0.48,meteohub,2013-05-08 19:02:00,
2013-05-08 15:03:00,67.8,67.8,30.16,NE,45,6.0,11.0,0,0.00,,,0.48,meteohub,2013-05-08 19:03:00,
2013-05-08 15:04:00,67.8,67.8,30.16,NE,45,6.0,11.0,0,0.00,,,0.48,meteohub,2013-05-08 19:04:00,
2013-05-08 15:06:00,67.8,67.8,30.16,NE,45,6.0,11.0,0,0.00,,,0.48,meteohub,2013-05-08 19:06:00,
2013-05-08 15:07:00,66.7,66.7,30.16,West,270,4.0,11.0,0,0.00,,,0.48,meteohub,2013-05-08 19:07:00,
2013-05-08 15:08:00,66.7,66.7,30.16,WSW,248,3.0,11.0,0,0.00,,,0.48,meteohub,2013-05-08 19:08:00,
2013-05-08 15:09:00,66.6,66.6,30.16,North,0,2.0,11.0,0,0.00,,,0.48,meteohub,2013-05-08 19:09:00,
2013-05-08 15:11:00,66.2,66.2,30.16,NE,45,6.0,8.0,0,0.00,,,0.48,meteohub,2013-05-08 19:11:00,
2013-05-08 15:12:00,66.2,66.2,30.16,NE,45,6.0,8.0,0,0.00,,,0.48,meteohub,2013-05-08 19:12:00,
2013-05-08 15:13:00,65.8,65.8,30.16,East,90,5.0,8.0,0,0.00,,,0.48,meteohub,2013-05-08 19:13:00,
2013-05-08 15:14:00,65.8,65.8,30.16,East,90,5.0,8.0,0,0.00,,,0.48,meteohub,2013-05-08 19:14:00,
2013-05-08 15:16:00,65.5,65.5,30.16,West,270,4.0,9.0,0,0.00,,,0.48,meteohub,2013-05-08 19:16:00,
2013-05-08 15:18:00,65.3,65.3,30.16,NW,315,3.0,9.0,0,0.00,,,0.48,meteohub,2013-05-08 19:18:00,
2013-05-08 15:19:00,65.3,65.3,30.16,NW,315,2.0,9.0,0,0.00,,,0.48,meteohub,2013-05-08 19:19:00,
2013-05-08 15:20:00,65.3,65.3,30.16,NE,45,4.0,9.0,0,0.00,,,0.48,meteohub,2013-05-08 19:20:00,
2013-05-08 15:22:00,65.3,65.3,30.15,NW,315,4.0,9.0,0,0.00,,,0.48,meteohub,2013-05-08 19:22:00,
2013-05-08 15:23:00,65.3,65.3,30.15,North,0,3.0,9.0,0,0.00,,,0.48,meteohub,2013-05-08 19:23:00,
2013-05-08 15:24:00,65.3,65.3,30.16,NW,315,3.0,9.0,0,0.00,,,0.48,meteohub,2013-05-08 19:24:00,
2013-05-08 15:25:00,65.3,65.3,30.15,NW,315,2.0,9.0,0,0.00,,,0.48,meteohub,2013-05-08 19:25:00,
2013-05-08 15:28:00,65.3,65.3,30.15,NE,45,4.0,9.0,0,0.00,,,0.48,meteohub,2013-05-08 19:28:00,
2013-05-08 15:29:00,65.3,65.3,30.15,WSW,248,2.0,9.0,0,0.00,,,0.48,meteohub,2013-05-08 19:29:00,
2013-05-08 15:30:00,65.3,65.3,30.15,West,270,2.0,9.0,0,0.00,,,0.48,meteohub,2013-05-08 19:30:00,
2013-05-08 15:31:00,65.3,65.3,30.15,NW,315,4.0,7.0,0,0.00,,,0.48,meteohub,2013-05-08 19:31:00,
2013-05-08 15:33:00,65.3,65.3,30.15,North,0,2.0,7.0,0,0.00,,,0.48,meteohub,2013-05-08 19:33:00,
2013-05-08 15:34:00,65.3,65.3,30.15,North,0,3.0,7.0,0,0.00,,,0.48,meteohub,2013-05-08 19:34:00,
2013-05-08 15:35:00,65.3,65.3,30.15,North,0,3.0,7.0,0,0.00,,,0.48,meteohub,2013-05-08 19:35:00,
2013-05-08 15:37:00,65.3,65.3,30.15,NE,45,4.0,7.0,0,0.00,,,0.48,meteohub,2013-05-08 19:37:00,
2013-05-08 15:39:00,65.5,65.5,30.15,SE,135,1.0,7.0,0,0.00,,,0.48,meteohub,2013-05-08 19:39:00,
2013-05-08 15:40:00,65.7,65.7,30.15,NE,45,1.0,8.0,0,0.00,,,0.48,meteohub,2013-05-08 19:40:00,
2013-05-08 15:42:00,65.8,65.8,30.15,NE,45,1.0,8.0,0,0.00,,,0.48,meteohub,2013-05-08 19:42:00,
2013-05-08 15:45:00,66.2,66.2,30.14,North,0,4.0,8.0,0,0.00,,,0.48,meteohub,2013-05-08 19:45:00,
2013-05-08 15:46:00,66.4,66.4,30.14,NW,315,2.0,8.0,0,0.00,,,0.48,meteohub,2013-05-08 19:46:00,
2013-05-08 15:47:00,66.6,66.6,30.14,NW,315,0.0,8.0,0,0.00,,,0.48,meteohub,2013-05-08 19:47:00,
2013-05-08 15:49:00,66.7,66.7,30.15,North,0,3.0,8.0,0,0.00,,,0.48,meteohub,2013-05-08 19:49:00,
2013-05-08 15:51:00,66.9,66.9,30.14,NE,45,4.0,8.0,0,0.00,,,0.48,meteohub,2013-05-08 19:51:00,
2013-05-08 15:53:00,67.1,67.1,30.14,NE,45,3.0,8.0,0,0.00,,,0.48,meteohub,2013-05-08 19:53:00,
2013-05-08 15:54:00,67.3,67.3,30.14,West,270,4.0,8.0,0,0.00,,,0.48,meteohub,2013-05-08 19:54:00,
2013-05-08 15:56:00,67.5,67.5,30.14,North,0,4.0,7.0,0,0.00,,,0.48,meteohub,2013-05-08 19:56:00,
2013-05-08 15:58:00,67.6,67.6,30.14,North,0,2.0,7.0,0,0.00,,,0.48,meteohub,2013-05-08 19:58:00,
2013-05-08 15:59:00,68.0,68.0,30.14,NE,45,2.0,7.0,0,0.00,,,0.48,meteohub,2013-05-08 19:59:00,
2013-05-08 16:01:00,68.0,68.0,30.14,East,90,3.0,7.0,0,0.00,,,0.48,meteohub,2013-05-08 20:01:00,
2013-05-08 16:04:00,68.0,68.0,30.14,East,90,3.0,7.0,0,0.00,,,0.48,meteohub,2013-05-08 20:04:00,
2013-05-08 16:05:00,68.0,68.0,30.14,East,90,3.0,7.0,0,0.00,,,0.48,meteohub,2013-05-08 20:05:00,
2013-05-08 16:08:00,68.0,68.0,30.14,East,90,3.0,7.0,0,0.00,,,0.48,meteohub,2013-05-08 20:08:00,
2013-05-08 16:09:00,68.0,68.0,30.14,East,90,3.0,7.0,0,0.00,,,0.48,meteohub,2013-05-08 20:09:00,
2013-05-08 16:10:00,68.7,68.7,30.14,NW,315,2.0,4.0,0,0.00,,,0.48,meteohub,2013-05-08 20:10:00,
2013-05-08 16:11:00,68.7,68.7,30.13,North,0,3.0,4.0,0,0.00,,,0.48,meteohub,2013-05-08 20:11:00,
2013-05-08 16:14:00,68.7,68.7,30.14,East,90,5.0,5.0,0,0.00,,,0.48,meteohub,2013-05-08 20:14:00,
2013-05-08 16:15:00,68.7,68.7,30.14,East,90,5.0,5.0,0,0.00,,,0.48,meteohub,2013-05-08 20:15:00,
2013-05-08 16:17:00,68.5,68.5,30.14,WSW,248,4.0,7.0,0,0.00,,,0.48,meteohub,2013-05-08 20:17:00,
2013-05-08 16:20:00,68.5,68.5,30.14,North,0,4.0,7.0,0,0.00,,,0.48,meteohub,2013-05-08 20:20:00,
2013-05-08 16:21:00,68.5,68.5,30.14,WNW,293,5.0,7.0,0,0.00,,,0.48,meteohub,2013-05-08 20:21:00,
2013-05-08 16:22:00,68.5,68.5,30.14,NW,315,4.0,7.0,0,0.00,,,0.48,meteohub,2013-05-08 20:22:00,
2013-05-08 16:23:00,68.5,68.5,30.14,NW,315,4.0,7.0,0,0.00,,,0.48,meteohub,2013-05-08 20:23:00,
2013-05-08 16:26:00,69.1,69.1,30.14,West,270,4.0,7.0,0,0.00,,,0.48,meteohub,2013-05-08 20:26:00,
2013-05-08 16:27:00,69.4,69.4,30.14,West,270,3.0,7.0,0,0.00,,,0.48,meteohub,2013-05-08 20:27:00,
2013-05-08 16:28:00,69.6,69.6,30.14,NE,45,3.0,7.0,0,0.00,,,0.48,meteohub,2013-05-08 20:28:00,
2013-05-08 16:32:00,70.0,70.0,30.14,NE,45,10.0,10.0,0,0.00,,,0.48,meteohub,2013-05-08 20:32:00,
2013-05-08 16:33:00,70.0,70.0,30.14,NE,45,10.0,10.0,0,0.00,,,0.48,meteohub,2013-05-08 20:33:00,
2013-05-08 16:34:00,69.8,69.8,30.14,NW,315,11.0,11.0,0,0.00,,,0.48,meteohub,2013-05-08 20:34:00,
2013-05-08 16:38:00,68.7,68.7,30.14,NW,315,7.0,8.0,0,0.00,,,0.48,meteohub,2013-05-08 20:38:00,
2013-05-08 16:39:00,68.5,68.5,30.14,North,0,4.0,8.0,0,0.00,,,0.48,meteohub,2013-05-08 20:39:00,
2013-05-08 16:40:00,68.4,68.4,30.14,East,90,4.0,8.0,0,0.00,,,0.48,meteohub,2013-05-08 20:40:00,
2013-05-08 16:43:00,67.6,67.6,30.14,NW,315,4.0,11.0,0,0.00,,,0.48,meteohub,2013-05-08 20:43:00,
2013-05-08 16:44:00,67.6,67.6,30.14,NE,45,4.0,11.0,0,0.00,,,0.48,meteohub,2013-05-08 20:44:00,
2013-05-08 16:45:00,67.5,67.5,30.14,NE,45,5.0,11.0,0,0.00,,,0.48,meteohub,2013-05-08 20:45:00,
2013-05-08 16:46:00,67.3,67.3,30.14,NE,45,3.0,11.0,0,0.00,,,0.48,meteohub,2013-05-08 20:46:00,
2013-05-08 16:47:00,67.1,67.1,30.14,North,0,3.0,11.0,0,0.00,,,0.48,meteohub,2013-05-08 20:47:00,
2013-05-08 16:49:00,66.9,66.9,30.14,NE,45,7.0,11.0,0,0.00,,,0.48,meteohub,2013-05-08 20:49:00,
2013-05-08 16:50:00,66.9,66.9,30.14,NE,45,7.0,7.0,0,0.00,,,0.48,meteohub,2013-05-08 20:50:00,
2013-05-08 16:51:00,66.6,66.6,30.14,NE,45,4.0,7.0,0,0.00,,,0.48,meteohub,2013-05-08 20:51:00,
2013-05-08 16:52:00,66.6,66.6,30.14,NE,45,4.0,7.0,0,0.00,,,0.48,meteohub,2013-05-08 20:52:00,
2013-05-08 16:55:00,66.2,66.2,30.14,WNW,293,4.0,7.0,0,0.00,,,0.48,meteohub,2013-05-08 20:55:00,
2013-05-08 16:56:00,66.0,66.0,30.14,East,90,4.0,7.0,0,0.00,,,0.48,meteohub,2013-05-08 20:56:00,
2013-05-08 16:57:00,66.0,66.0,30.14,West,270,4.0,7.0,0,0.00,,,0.48,meteohub,2013-05-08 20:57:00,
2013-05-08 16:58:00,66.0,66.0,30.14,East,90,1.0,7.0,0,0.00,,,0.48,meteohub,2013-05-08 20:58:00,
2013-05-08 17:00:00,66.2,66.2,30.14,NE,45,0.0,7.0,0,0.00,,,0.48,meteohub,2013-05-08 21:00:00,
2013-05-08 17:02:00,66.2,66.2,30.14,NE,45,0.0,7.0,0,0.00,,,0.48,meteohub,2013-05-08 21:02:00,
2013-05-08 17:03:00,66.2,66.2,30.13,NE,45,0.0,7.0,0,0.00,,,0.48,meteohub,2013-05-08 21:03:00,
2013-05-08 17:04:00,66.2,66.2,30.14,NE,45,0.0,7.0,0,0.00,,,0.48,meteohub,2013-05-08 21:04:00,
2013-05-08 17:06:00,67.1,67.1,30.14,North,0,4.0,7.0,0,0.00,,,0.48,meteohub,2013-05-08 21:06:00,
2013-05-08 17:07:00,67.3,67.3,30.14,East,90,2.0,7.0,0,0.00,,,0.48,meteohub,2013-05-08 21:07:00,
2013-05-08 17:08:00,67.5,67.5,30.14,North,0,4.0,7.0,0,0.00,,,0.48,meteohub,2013-05-08 21:08:00,
2013-05-08 17:09:00,67.8,67.8,30.14,NW,315,2.0,7.0,0,0.00,,,0.48,meteohub,2013-05-08 21:09:00,
2013-05-08 17:10:00,68.0,68.0,30.14,NE,45,2.0,4.0,0,0.00,,,0.48,meteohub,2013-05-08 21:10:00,
2013-05-08 17:13:00,69.6,69.6,30.13,NE,45,4.0,4.0,0,0.00,,,0.48,meteohub,2013-05-08 21:13:00,
2013-05-08 17:14:00,69.8,69.8,30.13,East,90,4.0,4.0,0,0.00,,,0.48,meteohub,2013-05-08 21:14:00,
2013-05-08 17:15:00,70.2,70.2,30.13,East,90,5.0,5.0,0,0.00,,,0.48,meteohub,2013-05-08 21:15:00,
2013-05-08 17:16:00,70.2,70.2,30.13,East,90,5.0,5.0,0,0.00,,,0.48,meteohub,2013-05-08 21:16:00,
2013-05-08 17:18:00,71.4,71.4,30.13,North,0,4.0,5.0,0,0.00,,,0.48,meteohub,2013-05-08 21:18:00,
2013-05-08 17:19:00,71.6,71.6,30.13,NE,45,4.0,5.0,0,0.00,,,0.48,meteohub,2013-05-08 21:19:00,
2013-05-08 17:21:00,72.1,72.1,30.13,WSW,248,6.0,6.0,0,0.00,,,0.48,meteohub,2013-05-08 21:21:00,
2013-05-08 17:22:00,72.1,72.1,30.13,WSW,248,3.0,5.0,0,0.00,,,0.48,meteohub,2013-05-08 21:22:00,
2013-05-08 17:24:00,72.3,72.3,30.13,West,270,1.0,5.0,0,0.00,,,0.48,meteohub,2013-05-08 21:24:00,
2013-05-08 17:26:00,73.6,73.6,30.13,East,90,4.0,6.0,0,0.00,,,0.48,meteohub,2013-05-08 21:26:00,
2013-05-08 17:27:00,73.6,73.6,30.13,East,90,4.0,6.0,0,0.00,,,0.48,meteohub,2013-05-08 21:27:00,
2013-05-08 17:28:00,73.2,73.2,30.13,NW,315,6.0,6.0,0,0.00,,,0.48,meteohub,2013-05-08 21:28:00,
2013-05-08 17:30:00,72.7,72.7,30.13,West,270,5.0,6.0,0,0.00,,,0.48,meteohub,2013-05-08 21:30:00,
2013-05-08 17:31:00,71.8,71.8,30.13,NW,315,4.0,6.0,0,0.00,,,0.48,meteohub,2013-05-08 21:31:00,
2013-05-08 17:32:00,71.8,71.8,30.13,NW,315,4.0,6.0,0,0.00,,,0.48,meteohub,2013-05-08 21:32:00,
2013-05-08 17:34:00,70.7,70.7,30.13,NE,45,4.0,6.0,0,0.00,,,0.48,meteohub,2013-05-08 21:34:00,
2013-05-08 17:35:00,70.3,70.3,30.13,West,270,7.0,7.0,0,0.00,,,0.48,meteohub,2013-05-08 21:35:00,
2013-05-08 17:37:00,70.3,70.3,30.13,North,0,4.0,6.0,0,0.00,,,0.48,meteohub,2013-05-08 21:37:00,
2013-05-08 17:38:00,70.2,70.2,30.13,NW,315,4.0,6.0,0,0.00,,,0.48,meteohub,2013-05-08 21:38:00,
2013-05-08 17:41:00,69.8,69.8,30.13,North,0,5.0,7.0,0,0.00,,,0.48,meteohub,2013-05-08 21:41:00,
2013-05-08 17:42:00,69.6,69.6,30.13,East,90,5.0,7.0,0,0.00,,,0.48,meteohub,2013-05-08 21:42:00,
2013-05-08 17:43:00,69.4,69.4,30.13,NE,45,5.0,7.0,0,0.00,,,0.48,meteohub,2013-05-08 21:43:00,
2013-05-08 17:44:00,69.3,69.3,30.13,NE,45,4.0,7.0,0,0.00,,,0.48,meteohub,2013-05-08 21:44:00,
2013-05-08 17:46:00,69.1,69.1,30.13,NW,315,3.0,7.0,0,0.00,,,0.48,meteohub,2013-05-08 21:46:00,
2013-05-08 17:47:00,68.7,68.7,30.14,East,90,7.0,7.0,0,0.00,,,0.48,meteohub,2013-05-08 21:47:00,
2013-05-08 17:48:00,68.5,68.5,30.13,East,90,8.0,8.0,0,0.00,,,0.48,meteohub,2013-05-08 21:48:00,
2013-05-08 17:49:00,68.4,68.4,30.13,SE,135,7.0,7.0,0,0.00,,,0.48,meteohub,2013-05-08 21:49:00,
2013-05-08 17:50:00,68.4,68.4,30.13,East,90,8.0,8.0,0,0.00,,,0.48,meteohub,2013-05-08 21:50:00,
2013-05-08 17:51:00,68.2,68.2,30.13,SSW,203,8.0,8.0,0,0.00,,,0.48,meteohub,2013-05-08 21:51:00,
2013-05-08 17:53:00,67.8,67.8,30.13,SE,135,5.0,8.0,0,0.00,,,0.48,meteohub,2013-05-08 21:53:00,
2013-05-08 17:54:00,67.8,67.8,30.13,SSE,158,2.0,8.0,0,0.00,,,0.48,meteohub,2013-05-08 21:54:00,
2013-05-08 17:55:00,68.2,68.2,30.13,East,90,2.0,8.0,0,0.00,,,0.48,meteohub,2013-05-08 21:55:00,
2013-05-08 17:57:00,69.1,69.1,30.13,SE,135,2.0,8.0,0,0.00,,,0.48,meteohub,2013-05-08 21:57:00,
2013-05-08 17:58:00,69.1,69.1,30.13,SE,135,2.0,8.0,0,0.00,,,0.48,meteohub,2013-05-08 21:58:00,
2013-05-08 18:00:00,69.8,69.8,30.13,North,0,4.0,8.0,0,0.00,,,0.48,meteohub,2013-05-08 22:00:00,
2013-05-08 18:01:00,69.8,69.8,30.14,North,0,4.0,8.0,0,0.00,,,0.48,meteohub,2013-05-08 22:01:00,
2013-05-08 18:03:00,69.8,69.8,30.14,North,0,4.0,8.0,0,0.00,,,0.48,meteohub,2013-05-08 22:03:00,
2013-05-08 18:06:00,69.8,69.8,30.14,North,0,4.0,8.0,0,0.00,,,0.48,meteohub,2013-05-08 22:06:00,
2013-05-08 18:07:00,61.9,61.9,30.14,East,90,6.0,8.0,0,0.00,,,0.48,meteohub,2013-05-08 22:07:00,
2013-05-08 18:08:00,60.8,60.8,30.15,NE,45,11.0,11.0,0,0.00,,,0.48,meteohub,2013-05-08 22:08:00,
2013-05-08 18:11:00,57.7,57.7,30.14,East,90,3.0,11.0,0,0.34,,,0.83,meteohub,2013-05-08 22:11:00,
2013-05-08 18:13:00,56.8,56.8,30.14,South,180,3.0,11.0,0,0.34,,,0.83,meteohub,2013-05-08 22:13:00,
2013-05-08 18:14:00,56.5,56.5,30.13,WSW,248,2.0,11.0,0,0.34,,,0.83,meteohub,2013-05-08 22:14:00,
2013-05-08 18:15:00,56.1,56.1,30.14,WSW,248,2.0,11.0,0,0.34,,,0.83,meteohub,2013-05-08 22:15:00,
2013-05-08 18:16:00,55.6,55.6,30.14,North,0,1.0,11.0,0,0.41,,,0.90,meteohub,2013-05-08 22:16:00,
2013-05-08 18:17:00,55.4,55.4,30.14,NW,315,2.0,11.0,0,0.41,,,0.90,meteohub,2013-05-08 22:17:00,
2013-05-08 18:18:00,55.2,55.2,30.14,North,0,3.0,11.0,0,0.41,,,0.90,meteohub,2013-05-08 22:18:00,
2013-05-08 18:20:00,55.0,55.0,30.14,NW,315,3.0,11.0,0,0.41,,,0.93,meteohub,2013-05-08 22:20:00,
2013-05-08 18:21:00,55.0,55.0,30.14,East,90,3.0,11.0,0,0.45,,,0.93,meteohub,2013-05-08 22:21:00,
2013-05-08 18:24:00,54.9,54.9,30.14,NE,45,2.0,11.0,0,0.45,,,0.93,meteohub,2013-05-08 22:24:00,
2013-05-08 18:25:00,54.9,54.9,30.14,NW,315,2.0,11.0,0,0.50,,,0.98,meteohub,2013-05-08 22:25:00,
2013-05-08 18:26:00,54.9,54.9,30.14,NW,315,2.0,11.0,0,0.50,,,0.98,meteohub,2013-05-08 22:26:00,
2013-05-08 18:27:00,54.9,54.9,30.14,NW,315,3.0,11.0,0,0.50,,,0.98,meteohub,2013-05-08 22:27:00,
2013-05-08 18:29:00,54.9,-0.8,30.14,NW,315,2.0,11.0,10,0.50,,,0.98,meteohub,2013-05-08 22:29:00,
2013-05-08 18:30:00,55.0,1.4,30.15,NW,315,3.0,3.0,11,0.63,,,1.11,meteohub,2013-05-08 22:30:00,
2013-05-08 18:31:00,55.0,1.4,30.15,NW,315,3.0,3.0,11,0.63,,,1.11,meteohub,2013-05-08 22:31:00,
2013-05-08 18:33:00,55.0,3.4,30.15,West,270,2.0,3.0,12,0.63,,,1.11,meteohub,2013-05-08 22:33:00,
2013-05-08 18:35:00,54.9,5.0,30.14,West,270,3.0,3.0,13,0.63,,,1.11,meteohub,2013-05-08 22:35:00,
2013-05-08 18:36:00,54.9,5.0,30.15,North,0,7.0,7.0,13,0.77,,,1.25,meteohub,2013-05-08 22:36:00,
2013-05-08 18:38:00,55.0,8.2,30.15,West,270,6.0,6.0,15,0.77,,,1.25,meteohub,2013-05-08 22:38:00,
2013-05-08 18:40:00,54.9,8.1,30.14,NW,315,7.0,7.0,15,0.81,,,1.30,meteohub,2013-05-08 22:40:00,
2013-05-08 18:41:00,54.9,8.1,30.14,NW,315,5.0,7.0,15,0.81,,,1.30,meteohub,2013-05-08 22:41:00,
2013-05-08 18:42:00,54.9,8.1,30.14,West,270,3.0,7.0,15,0.81,,,1.30,meteohub,2013-05-08 22:42:00,
2013-05-08 18:43:00,54.9,8.1,30.14,East,90,4.0,7.0,15,0.81,,,1.30,meteohub,2013-05-08 22:43:00,
2013-05-08 18:45:00,55.0,8.2,30.14,South,180,2.0,8.0,15,0.87,,,1.36,meteohub,2013-05-08 22:45:00,
2013-05-08 18:47:00,55.0,9.7,30.14,SE,135,1.0,8.0,16,0.87,,,1.36,meteohub,2013-05-08 22:47:00,
2013-05-08 18:48:00,55.0,9.7,30.14,West,270,0.0,8.0,16,0.87,,,1.36,meteohub,2013-05-08 22:48:00,
2013-05-08 18:51:00,55.0,9.7,30.14,North,0,2.0,8.0,16,0.90,,,1.38,meteohub,2013-05-08 22:51:00,
2013-05-08 18:52:00,55.0,10.9,30.14,WSW,248,2.0,8.0,17,0.90,,,1.38,meteohub,2013-05-08 22:52:00,
2013-05-08 18:53:00,55.0,10.9,30.14,North,0,3.0,8.0,17,0.90,,,1.38,meteohub,2013-05-08 22:53:00,
2013-05-08 18:54:00,55.0,10.9,30.14,SE,135,2.0,8.0,17,0.90,,,1.38,meteohub,2013-05-08 22:54:00,
2013-05-08 18:56:00,54.9,9.5,30.15,South,180,2.0,7.0,16,0.90,,,1.38,meteohub,2013-05-08 22:56:00,
2013-05-08 18:57:00,54.9,9.5,30.15,South,180,2.0,7.0,16,0.90,,,1.38,meteohub,2013-05-08 22:57:00,
2013-05-08 18:58:00,54.7,9.3,30.15,South,180,4.0,7.0,16,0.90,,,1.38,meteohub,2013-05-08 22:58:00,
2013-05-08 18:59:00,54.7,9.3,30.15,South,180,4.0,7.0,16,0.90,,,1.38,meteohub,2013-05-08 22:59:00,
2013-05-08 19:02:00,54.7,10.8,30.15,East,90,3.0,4.0,17,0.91,,,1.39,meteohub,2013-05-08 23:02:00,
2013-05-08 19:03:00,54.7,10.8,30.15,East,90,3.0,4.0,17,0.91,,,1.39,meteohub,2013-05-08 23:03:00,
2013-05-08 19:04:00,54.7,10.8,30.15,East,90,1.0,4.0,17,0.91,,,1.39,meteohub,2013-05-08 23:04:00,
2013-05-08 19:07:00,54.7,10.8,30.14,WSW,248,2.0,4.0,17,0.91,,,1.39,meteohub,2013-05-08 23:07:00,
2013-05-08 19:08:00,54.7,10.8,30.14,South,180,0.0,4.0,17,0.91,,,1.39,meteohub,2013-05-08 23:08:00,
2013-05-08 19:09:00,54.7,10.8,30.14,South,180,2.0,4.0,17,0.91,,,1.39,meteohub,2013-05-08 23:09:00,
2013-05-08 19:10:00,54.5,10.6,30.14,South,180,1.0,4.0,17,0.57,,,1.39,meteohub,2013-05-08 23:10:00,
2013-05-08 19:13:00,54.5,10.6,30.14,South,180,0.0,4.0,17,0.57,,,1.39,meteohub,2013-05-08 23:13:00,
2013-05-08 19:14:00,54.5,10.6,30.14,South,180,0.0,4.0,17,0.57,,,1.39,meteohub,2013-05-08 23:14:00,
2013-05-08 19:16:00,54.5,10.6,30.14,South,180,0.0,3.0,17,0.50,,,1.39,meteohub,2013-05-08 23:16:00,
2013-05-08 19:17:00,54.5,11.8,30.14,South,180,0.0,3.0,18,0.50,,,1.39,meteohub,2013-05-08 23:17:00,
2013-05-08 19:18:00,54.5,11.8,30.14,South,180,0.0,3.0,18,0.50,,,1.39,meteohub,2013-05-08 23:18:00,
2013-05-08 19:19:00,54.5,11.8,30.14,South,180,0.0,3.0,18,0.50,,,1.39,meteohub,2013-05-08 23:19:00,
2013-05-08 19:21:00,54.5,11.8,30.14,SE,135,0.0,3.0,18,0.45,,,1.39,meteohub,2013-05-08 23:21:00,
2013-05-08 19:23:00,54.5,11.8,30.14,SE,135,0.0,3.0,18,0.45,,,1.39,meteohub,2013-05-08 23:23:00,
2013-05-08 19:24:00,54.5,11.8,30.14,SE,135,0.0,3.0,18,0.45,,,1.39,meteohub,2013-05-08 23:24:00,
2013-05-08 19:25:00,54.7,12.0,30.14,East,90,0.0,3.0,18,0.45,,,1.39,meteohub,2013-05-08 23:25:00,
2013-05-08 19:27:00,54.7,12.0,30.14,East,90,0.0,1.0,18,0.35,,,1.39,meteohub,2013-05-08 23:27:00,
2013-05-08 19:28:00,54.7,12.0,30.14,East,90,0.0,1.0,18,0.35,,,1.39,meteohub,2013-05-08 23:28:00,
2013-05-08 19:29:00,54.7,12.0,30.14,East,90,0.0,1.0,18,0.35,,,1.39,meteohub,2013-05-08 23:29:00,
2013-05-08 19:30:00,54.7,12.0,30.14,East,90,0.0,1.0,18,0.26,,,1.39,meteohub,2013-05-08 23:30:00,
2013-05-08 19:32:00,54.9,13.3,30.14,East,90,0.0,1.0,19,0.26,,,1.39,meteohub,2013-05-08 23:32:00,
2013-05-08 19:33:00,54.9,13.3,30.15,East,90,0.0,1.0,19,0.26,,,1.39,meteohub,2013-05-08 23:33:00,
2013-05-08 19:34:00,54.9,13.3,30.15,East,90,0.0,1.0,19,0.26,,,1.39,meteohub,2013-05-08 23:34:00,
2013-05-08 19:36:00,54.9,14.5,30.14,SE,135,0.0,0.0,20,0.12,,,1.39,meteohub,2013-05-08 23:36:00,
2013-05-08 19:38:00,54.7,14.4,30.14,South,180,2.0,0.0,20,0.12,,,1.39,meteohub,2013-05-08 23:38:00,
2013-05-08 19:39:00,54.7,14.4,30.14,South,180,2.0,0.0,20,0.12,,,1.39,meteohub,2013-05-08 23:39:00,
2013-05-08 19:40:00,54.7,14.4,30.15,SE,135,2.0,0.0,20,0.12,,,1.39,meteohub,2013-05-08 23:40:00,
2013-05-08 19:42:00,54.5,14.2,30.14,WSW,248,0.0,2.0,20,0.05,,,1.39,meteohub,2013-05-08 23:42:00,
2013-05-08 19:43:00,54.5,14.2,30.14,South,180,2.0,2.0,20,0.05,,,1.39,meteohub,2013-05-08 23:43:00,
2013-05-08 19:44:00,54.5,14.2,30.14,SE,135,1.0,2.0,20,0.05,,,1.39,meteohub,2013-05-08 23:44:00,
2013-05-08 19:45:00,54.5,14.2,30.15,South,180,1.0,2.0,20,0.02,,,1.39,meteohub,2013-05-08 23:45:00,
2013-05-08 19:47:00,54.3,14.0,30.14,WSW,248,1.0,2.0,20,0.02,,,1.39,meteohub,2013-05-08 23:47:00,
2013-05-08 19:49:00,54.3,14.0,30.14,SE,135,1.0,2.0,20,0.02,,,1.39,meteohub,2013-05-08 23:49:00,
2013-05-08 19:50:00,54.3,14.0,30.14,SE,135,1.0,2.0,20,0.02,,,1.39,meteohub,2013-05-08 23:50:00,
2013-05-08 19:51:00,54.3,14.0,30.14,SE,135,0.0,2.0,20,0.01,,,1.39,meteohub,2013-05-08 23:51:00,
2013-05-08 19:52:00,54.1,15.1,30.15,WSW,248,0.0,2.0,21,0.01,,,1.39,meteohub,2013-05-08 23:52:00,
2013-05-08 19:55:00,54.1,15.1,30.15,South,180,2.0,2.0,21,0.00,,,1.39,meteohub,2013-05-08 23:55:00,
2013-05-08 19:57:00,54.0,14.9,30.15,WSW,248,2.0,2.0,21,0.00,,,1.39,meteohub,2013-05-08 23:57:00,
2013-05-08 20:01:00,53.8,13.6,30.15,South,180,0.0,2.0,20,0.00,,,1.39,meteohub,2013-05-09 00:01:00,
2013-05-08 20:02:00,53.8,13.6,30.15,South,180,0.0,2.0,20,0.00,,,1.39,meteohub,2013-05-09 00:02:00,
2013-05-08 20:03:00,53.6,14.5,30.15,South,180,0.0,2.0,21,0.00,,,1.39,meteohub,2013-05-09 00:03:00,
2013-05-08 20:06:00,53.6,14.5,30.15,South,180,0.0,2.0,21,0.00,,,1.39,meteohub,2013-05-09 00:06:00,
2013-05-08 20:07:00,53.6,14.5,30.15,South,180,0.0,2.0,21,0.00,,,1.39,meteohub,2013-05-09 00:07:00,
2013-05-08 20:08:00,53.6,14.5,30.15,South,180,0.0,2.0,21,0.00,,,1.39,meteohub,2013-05-09 00:08:00,
2013-05-08 20:11:00,53.4,14.4,30.15,South,180,0.0,2.0,21,0.00,,,1.39,meteohub,2013-05-09 00:11:00,
2013-05-08 20:12:00,53.4,14.4,30.15,WSW,248,0.0,2.0,21,0.00,,,1.39,meteohub,2013-05-09 00:12:00,
2013-05-08 20:13:00,53.4,14.4,30.15,WSW,248,0.0,2.0,21,0.00,,,1.39,meteohub,2013-05-09 00:13:00,
2013-05-08 20:14:00,53.4,14.4,30.15,WSW,248,0.0,2.0,21,0.00,,,1.39,meteohub,2013-05-09 00:14:00,
2013-05-08 20:17:00,53.4,14.4,30.15,East,90,0.0,0.0,21,0.00,,,1.39,meteohub,2013-05-09 00:17:00,
2013-05-08 20:18:00,53.4,14.4,30.15,East,90,0.0,0.0,21,0.00,,,1.39,meteohub,2013-05-09 00:18:00,
2013-05-08 20:19:00,53.2,14.4,30.15,East,90,0.0,0.0,21,0.00,,,1.39,meteohub,2013-05-09 00:19:00,
2013-05-08 20:21:00,53.2,14.4,30.15,East,90,0.0,0.0,21,0.00,,,1.39,meteohub,2013-05-09 00:21:00,
2013-05-08 20:22:00,53.2,14.4,30.15,East,90,0.0,0.0,21,0.00,,,1.39,meteohub,2013-05-09 00:22:00,
2013-05-08 20:23:00,53.2,14.4,30.15,East,90,0.0,0.0,21,0.00,,,1.39,meteohub,2013-05-09 00:23:00,
2013-05-08 20:24:00,53.1,14.2,30.15,SE,135,0.0,0.0,21,0.00,,,1.39,meteohub,2013-05-09 00:24:00,
2013-05-08 20:27:00,53.1,14.2,30.15,South,180,0.0,0.0,21,0.00,,,1.39,meteohub,2013-05-09 00:27:00,
2013-05-08 20:28:00,53.1,14.2,30.15,East,90,0.0,0.0,21,0.00,,,1.39,meteohub,2013-05-09 00:28:00,
2013-05-08 20:29:00,53.1,14.2,30.15,East,90,0.0,0.0,21,0.00,,,1.39,meteohub,2013-05-09 00:29:00,
2013-05-08 20:32:00,52.9,14.0,30.15,East,90,0.0,0.0,21,0.00,,,1.39,meteohub,2013-05-09 00:32:00,
2013-05-08 20:34:00,52.9,14.0,30.15,East,90,0.0,0.0,21,0.00,,,1.39,meteohub,2013-05-09 00:34:00,
2013-05-08 20:38:00,52.7,12.7,30.16,SE,135,0.0,0.0,20,0.00,,,1.39,meteohub,2013-05-09 00:38:00,
2013-05-08 20:40:00,52.7,12.7,30.16,SE,135,0.0,0.0,20,0.00,,,1.39,meteohub,2013-05-09 00:40:00,
2013-05-08 20:41:00,52.7,12.7,30.16,East,90,0.0,0.0,20,0.00,,,1.39,meteohub,2013-05-09 00:41:00,
2013-05-08 20:44:00,52.7,12.7,30.15,South,180,0.0,0.0,20,0.00,,,1.39,meteohub,2013-05-09 00:44:00,
2013-05-08 20:46:00,52.7,12.7,30.16,South,180,0.0,0.0,20,0.00,,,1.39,meteohub,2013-05-09 00:46:00,
2013-05-08 20:47:00,52.7,12.7,30.16,South,180,0.0,0.0,20,0.00,,,1.39,meteohub,2013-05-09 00:47:00,
2013-05-08 20:49:00,52.5,12.6,30.16,East,90,0.0,0.0,20,0.00,,,1.39,meteohub,2013-05-09 00:49:00,
2013-05-08 20:52:00,52.5,12.6,30.16,East,90,0.0,0.0,20,0.00,,,1.39,meteohub,2013-05-09 00:52:00,
2013-05-08 20:54:00,52.5,12.6,30.16,WSW,248,0.0,0.0,20,0.00,,,1.39,meteohub,2013-05-09 00:54:00,
2013-05-08 20:57:00,52.5,12.6,30.16,West,270,3.0,0.0,20,0.00,,,1.39,meteohub,2013-05-09 00:57:00,
2013-05-08 20:58:00,52.5,12.6,30.16,West,270,3.0,0.0,20,0.00,,,1.39,meteohub,2013-05-09 00:58:00,
2013-05-08 20:59:00,52.7,12.7,30.17,North,0,6.0,0.0,20,0.00,,,1.39,meteohub,2013-05-09 00:59:00,
2013-05-08 21:02:00,52.9,12.9,30.17,East,90,2.0,3.0,20,0.00,,,1.39,meteohub,2013-05-09 01:02:00,
2013-05-08 21:03:00,52.9,12.9,30.17,East,90,2.0,3.0,20,0.00,,,1.39,meteohub,2013-05-09 01:03:00,
2013-05-08 21:05:00,52.9,12.9,30.17,NW,315,1.0,3.0,20,0.00,,,1.39,meteohub,2013-05-09 01:05:00,
2013-05-08 21:08:00,52.9,12.9,30.17,South,180,0.0,6.0,20,0.00,,,1.39,meteohub,2013-05-09 01:08:00,
2013-05-08 21:10:00,52.9,12.9,30.17,South,180,0.0,6.0,20,0.00,,,1.39,meteohub,2013-05-09 01:10:00,
2013-05-08 21:13:00,52.9,12.9,30.17,SE,135,2.0,6.0,20,0.00,,,1.39,meteohub,2013-05-09 01:13:00,
2013-05-08 21:14:00,52.9,12.9,30.17,SE,135,2.0,6.0,20,0.00,,,1.39,meteohub,2013-05-09 01:14:00,
2013-05-08 21:15:00,52.9,12.9,30.17,South,180,2.0,6.0,20,0.00,,,1.39,meteohub,2013-05-09 01:15:00,
2013-05-08 21:16:00,52.9,12.9,30.17,South,180,2.0,6.0,20,0.00,,,1.39,meteohub,2013-05-09 01:16:00,
2013-05-08 21:17:00,52.9,12.9,30.17,South,180,0.0,6.0,20,0.00,,,1.39,meteohub,2013-05-09 01:17:00,
2013-05-08 21:19:00,52.9,12.9,30.17,East,90,2.0,6.0,20,0.00,,,1.39,meteohub,2013-05-09 01:19:00,
2013-05-08 21:20:00,52.9,12.9,30.17,NE,45,4.0,4.0,20,0.02,,,1.42,meteohub,2013-05-09 01:20:00,
2013-05-08 21:22:00,52.9,12.9,30.17,NE,45,3.0,3.0,20,0.02,,,1.42,meteohub,2013-05-09 01:22:00,
2013-05-08 21:23:00,52.9,14.0,30.17,NE,45,3.0,3.0,21,0.02,,,1.42,meteohub,2013-05-09 01:23:00,
2013-05-08 21:24:00,52.9,14.0,30.17,NE,45,2.0,2.0,21,0.02,,,1.42,meteohub,2013-05-09 01:24:00,
2013-05-08 21:25:00,52.9,14.0,30.17,NE,45,4.0,4.0,21,0.02,,,1.42,meteohub,2013-05-09 01:25:00,
2013-05-08 21:26:00,52.9,14.0,30.17,East,90,3.0,4.0,21,0.02,,,1.42,meteohub,2013-05-09 01:26:00,
2013-05-08 21:28:00,52.9,14.0,30.18,East,90,3.0,4.0,21,0.02,,,1.42,meteohub,2013-05-09 01:28:00,
2013-05-08 21:30:00,52.9,14.0,30.17,NW,315,2.0,4.0,21,0.02,,,1.42,meteohub,2013-05-09 01:30:00,
2013-05-08 21:31:00,52.9,14.0,30.17,East,90,2.0,4.0,21,0.02,,,1.42,meteohub,2013-05-09 01:31:00,
2013-05-08 21:33:00,52.9,14.0,30.18,SE,135,1.0,4.0,21,0.02,,,1.42,meteohub,2013-05-09 01:33:00,
2013-05-08 21:34:00,52.9,14.0,30.18,South,180,2.0,4.0,21,0.02,,,1.42,meteohub,2013-05-09 01:34:00,
2013-05-08 21:35:00,52.9,14.0,30.17,SE,135,2.0,4.0,21,0.02,,,1.42,meteohub,2013-05-09 01:35:00,
2013-05-08 21:37:00,52.9,14.0,30.17,East,90,3.0,4.0,21,0.02,,,1.42,meteohub,2013-05-09 01:37:00,
2013-05-08 21:38:00,52.9,15.1,30.18,East,90,3.0,4.0,22,0.02,,,1.42,meteohub,2013-05-09 01:38:00,
2013-05-08 21:39:00,52.9,15.1,30.17,East,90,2.0,4.0,22,0.02,,,1.42,meteohub,2013-05-09 01:39:00,
2013-05-08 21:41:00,52.9,15.1,30.17,East,90,4.0,4.0,22,0.02,,,1.42,meteohub,2013-05-09 01:41:00,
2013-05-08 21:43:00,52.9,15.1,30.17,East,90,2.0,4.0,22,0.02,,,1.42,meteohub,2013-05-09 01:43:00,
2013-05-08 21:44:00,52.7,14.9,30.17,East,90,2.0,4.0,22,0.02,,,1.42,meteohub,2013-05-09 01:44:00,
2013-05-08 21:45:00,52.7,14.9,30.17,East,90,2.0,4.0,22,0.02,,,1.42,meteohub,2013-05-09 01:45:00,
2013-05-08 21:46:00,52.7,14.9,30.17,East,90,2.0,4.0,22,0.02,,,1.42,meteohub,2013-05-09 01:46:00,
2013-05-08 21:48:00,52.7,14.9,30.17,East,90,2.0,4.0,22,0.02,,,1.42,meteohub,2013-05-09 01:48:00,
2013-05-08 21:49:00,52.7,14.9,30.17,East,90,2.0,4.0,22,0.02,,,1.42,meteohub,2013-05-09 01:49:00,
2013-05-08 21:50:00,52.7,14.9,30.17,East,90,0.0,4.0,22,0.02,,,1.42,meteohub,2013-05-09 01:50:00,
2013-05-08 21:51:00,52.7,14.9,30.17,East,90,0.0,4.0,22,0.02,,,1.42,meteohub,2013-05-09 01:51:00,
2013-05-08 21:54:00,52.7,14.9,30.18,East,90,0.0,4.0,22,0.02,,,1.42,meteohub,2013-05-09 01:54:00,
2013-05-08 21:55:00,52.7,14.9,30.17,South,180,2.0,4.0,22,0.02,,,1.42,meteohub,2013-05-09 01:55:00,
2013-05-08 21:57:00,52.7,14.9,30.18,South,180,3.0,4.0,22,0.02,,,1.42,meteohub,2013-05-09 01:57:00,
2013-05-08 21:58:00,52.5,14.7,30.18,South,180,2.0,4.0,22,0.02,,,1.42,meteohub,2013-05-09 01:58:00,
2013-05-08 21:59:00,52.5,14.7,30.17,East,90,2.0,4.0,22,0.02,,,1.42,meteohub,2013-05-09 01:59:00,
2013-05-08 22:01:00,52.5,14.7,30.17,WSW,248,2.0,3.0,22,0.02,,,1.42,meteohub,2013-05-09 02:01:00,
2013-05-08 22:02:00,52.5,14.7,30.17,South,180,1.0,3.0,22,0.02,,,1.42,meteohub,2013-05-09 02:02:00,
2013-05-08 22:03:00,52.5,14.7,30.17,South,180,1.0,3.0,22,0.02,,,1.42,meteohub,2013-05-09 02:03:00,
2013-05-08 22:05:00,52.5,14.7,30.17,WSW,248,2.0,3.0,22,0.02,,,1.42,meteohub,2013-05-09 02:05:00,
2013-05-08 22:07:00,52.5,14.7,30.17,SE,135,0.0,3.0,22,0.02,,,1.42,meteohub,2013-05-09 02:07:00,
2013-05-08 22:08:00,52.5,15.8,30.17,South,180,1.0,3.0,23,0.02,,,1.42,meteohub,2013-05-09 02:08:00,
2013-05-08 22:11:00,52.3,15.6,30.17,South,180,0.0,3.0,23,0.02,,,1.42,meteohub,2013-05-09 02:11:00,
2013-05-08 22:12:00,52.3,15.6,30.17,SE,135,0.0,3.0,23,0.02,,,1.42,meteohub,2013-05-09 02:12:00,
2013-05-08 22:14:00,52.3,15.6,30.17,SE,135,0.0,3.0,23,0.02,,,1.42,meteohub,2013-05-09 02:14:00,
2013-05-08 22:17:00,52.3,15.6,30.17,SE,135,0.0,2.0,23,0.00,,,1.42,meteohub,2013-05-09 02:17:00,
2013-05-08 22:18:00,52.3,15.6,30.17,South,180,1.0,2.0,23,0.00,,,1.42,meteohub,2013-05-09 02:18:00,
2013-05-08 22:19:00,52.3,15.6,30.17,South,180,1.0,2.0,23,0.00,,,1.42,meteohub,2013-05-09 02:19:00,
2013-05-08 22:22:00,52.2,15.4,30.17,South,180,2.0,2.0,23,0.00,,,1.42,meteohub,2013-05-09 02:22:00,
2013-05-08 22:23:00,52.2,15.4,30.17,SE,135,2.0,2.0,23,0.00,,,1.42,meteohub,2013-05-09 02:23:00,
2013-05-08 22:24:00,52.2,15.4,30.17,SE,135,1.0,2.0,23,0.00,,,1.42,meteohub,2013-05-09 02:24:00,
2013-05-08 22:25:00,52.2,15.4,30.17,SE,135,1.0,2.0,23,0.00,,,1.42,meteohub,2013-05-09 02:25:00,
2013-05-08 22:28:00,52.2,16.5,30.17,South,180,2.0,2.0,24,0.00,,,1.42,meteohub,2013-05-09 02:28:00,
2013-05-08 22:29:00,52.0,16.3,30.17,SE,135,0.0,2.0,24,0.00,,,1.42,meteohub,2013-05-09 02:29:00,
2013-05-08 22:30:00,52.0,16.3,30.17,SE,135,0.0,2.0,24,0.00,,,1.42,meteohub,2013-05-09 02:30:00,
2013-05-08 22:31:00,52.0,16.3,30.17,SE,135,4.0,4.0,24,0.00,,,1.42,meteohub,2013-05-09 02:31:00,
2013-05-08 22:33:00,52.0,16.3,30.17,South,180,2.0,2.0,24,0.00,,,1.42,meteohub,2013-05-09 02:33:00,
2013-05-08 22:34:00,52.0,16.3,30.17,South,180,2.0,2.0,24,0.00,,,1.42,meteohub,2013-05-09 02:34:00,
2013-05-08 22:35:00,52.0,16.3,30.17,South,180,2.0,2.0,24,0.00,,,1.42,meteohub,2013-05-09 02:35:00,
2013-05-08 22:37:00,52.0,16.3,30.17,South,180,0.0,4.0,24,0.00,,,1.42,meteohub,2013-05-09 02:37:00,
2013-05-08 22:39:00,52.0,16.3,30.17,South,180,3.0,4.0,24,0.00,,,1.42,meteohub,2013-05-09 02:39:00,
2013-05-08 22:40:00,52.0,16.3,30.17,East,90,0.0,4.0,24,0.00,,,1.42,meteohub,2013-05-09 02:40:00,
2013-05-08 22:42:00,52.0,16.3,30.17,NE,45,0.0,4.0,24,0.00,,,1.42,meteohub,2013-05-09 02:42:00,
2013-05-08 22:43:00,52.0,16.3,30.17,East,90,4.0,4.0,24,0.00,,,1.42,meteohub,2013-05-09 02:43:00,
2013-05-08 22:46:00,52.0,16.3,30.16,East,90,2.0,4.0,24,0.00,,,1.42,meteohub,2013-05-09 02:46:00,
2013-05-08 22:47:00,51.8,16.2,30.16,East,90,2.0,4.0,24,0.00,,,1.42,meteohub,2013-05-09 02:47:00,
2013-05-08 22:49:00,51.8,16.2,30.16,SE,135,0.0,4.0,24,0.00,,,1.42,meteohub,2013-05-09 02:49:00,
2013-05-08 22:52:00,51.8,16.2,30.17,East,90,0.0,4.0,24,0.00,,,1.42,meteohub,2013-05-09 02:52:00,
2013-05-08 22:53:00,51.8,17.1,30.16,East,90,2.0,4.0,25,0.00,,,1.42,meteohub,2013-05-09 02:53:00,
2013-05-08 22:54:00,51.8,16.2,30.16,East,90,2.0,4.0,24,0.00,,,1.42,meteohub,2013-05-09 02:54:00,
2013-05-08 22:57:00,51.8,17.1,30.17,East,90,0.0,4.0,25,0.00,,,1.42,meteohub,2013-05-09 02:57:00,
2013-05-08 22:58:00,51.8,17.1,30.16,East,90,0.0,4.0,25,0.00,,,1.42,meteohub,2013-05-09 02:58:00,
2013-05-08 22:59:00,51.8,17.1,30.16,East,90,0.0,4.0,25,0.00,,,1.42,meteohub,2013-05-09 02:59:00,
2013-05-08 23:01:00,51.8,17.1,30.16,East,90,0.0,2.0,25,0.00,,,1.42,meteohub,2013-05-09 03:01:00,
2013-05-08 23:02:00,51.8,17.1,30.16,East,90,0.0,2.0,25,0.00,,,1.42,meteohub,2013-05-09 03:02:00,
2013-05-08 23:03:00,51.6,16.9,30.16,SE,135,0.0,2.0,25,0.00,,,1.42,meteohub,2013-05-09 03:03:00,
2013-05-08 23:04:00,51.6,16.9,30.16,SE,135,0.0,2.0,25,0.00,,,1.42,meteohub,2013-05-09 03:04:00,
2013-05-08 23:05:00,51.6,16.9,30.16,SE,135,0.0,2.0,25,0.00,,,1.42,meteohub,2013-05-09 03:05:00,
2013-05-08 23:07:00,51.4,16.7,30.16,SE,135,0.0,2.0,25,0.00,,,1.42,meteohub,2013-05-09 03:07:00,
2013-05-08 23:10:00,51.4,16.7,30.16,SE,135,0.0,2.0,25,0.00,,,1.42,meteohub,2013-05-09 03:10:00,
2013-05-08 23:11:00,51.4,16.7,30.16,SE,135,0.0,2.0,25,0.00,,,1.42,meteohub,2013-05-09 03:11:00,
2013-05-08 23:13:00,51.4,16.7,30.16,SE,135,0.0,2.0,25,0.00,,,1.42,meteohub,2013-05-09 03:13:00,
2013-05-08 23:16:00,51.4,16.7,30.16,SE,135,2.0,2.0,25,0.00,,,1.42,meteohub,2013-05-09 03:16:00,
2013-05-08 23:18:00,51.4,16.7,30.16,South,180,0.0,2.0,25,0.00,,,1.42,meteohub,2013-05-09 03:18:00,
2013-05-08 23:21:00,51.6,16.9,30.16,SE,135,2.0,2.0,25,0.00,,,1.42,meteohub,2013-05-09 03:21:00,
2013-05-08 23:22:00,51.6,16.9,30.16,East,90,4.0,4.0,25,0.00,,,1.42,meteohub,2013-05-09 03:22:00,
2013-05-08 23:23:00,51.6,16.9,30.16,South,180,2.0,2.0,25,0.00,,,1.42,meteohub,2013-05-09 03:23:00,
2013-05-08 23:26:00,51.6,17.8,30.16,SE,135,2.0,4.0,26,0.00,,,1.42,meteohub,2013-05-09 03:26:00,
2013-05-08 23:27:00,51.6,17.8,30.16,SE,135,2.0,4.0,26,0.00,,,1.42,meteohub,2013-05-09 03:27:00,
2013-05-08 23:28:00,51.6,17.8,30.16,WSW,248,3.0,4.0,26,0.00,,,1.42,meteohub,2013-05-09 03:28:00,
2013-05-08 23:29:00,51.6,17.8,30.16,South,180,4.0,4.0,26,0.00,,,1.42,meteohub,2013-05-09 03:29:00,
2013-05-08 23:32:00,51.8,18.0,30.16,SE,135,3.0,4.0,26,0.01,,,1.43,meteohub,2013-05-09 03:32:00,
2013-05-08 23:33:00,51.8,18.0,30.16,SE,135,2.0,4.0,26,0.01,,,1.43,meteohub,2013-05-09 03:33:00,
2013-05-08 23:34:00,51.8,18.0,30.16,SE,135,2.0,4.0,26,0.01,,,1.43,meteohub,2013-05-09 03:34:00,
2013-05-08 23:35:00,51.8,18.0,30.16,South,180,2.0,4.0,26,0.01,,,1.43,meteohub,2013-05-09 03:35:00,
2013-05-08 23:37:00,51.8,18.9,30.16,WSW,248,3.0,4.0,27,0.01,,,1.43,meteohub,2013-05-09 03:37:00,
2013-05-08 23:38:00,51.8,18.9,30.16,WSW,248,5.0,5.0,27,0.01,,,1.43,meteohub,2013-05-09 03:38:00,
2013-05-08 23:39:00,51.8,18.9,30.16,WSW,248,5.0,5.0,27,0.01,,,1.43,meteohub,2013-05-09 03:39:00,
2013-05-08 23:40:00,51.8,18.9,30.16,WSW,248,2.0,5.0,27,0.01,,,1.43,meteohub,2013-05-09 03:40:00,
2013-05-08 23:44:00,51.8,18.9,30.16,SE,135,2.0,5.0,27,0.01,,,1.43,meteohub,2013-05-09 03:44:00,
2013-05-08 23:45:00,51.8,18.9,30.16,SE,135,2.0,5.0,27,0.01,,,1.43,meteohub,2013-05-09 03:45:00,
2013-05-08 23:46:00,51.8,18.9,30.16,SE,135,2.0,5.0,27,0.01,,,1.43,meteohub,2013-05-09 03:46:00,
2013-05-08 23:49:00,51.8,18.9,30.16,South,180,2.0,5.0,27,0.01,,,1.43,meteohub,2013-05-09 03:49:00,
2013-05-08 23:50:00,52.0,19.0,30.16,SE,135,1.0,5.0,27,0.01,,,1.43,meteohub,2013-05-09 03:50:00,
2013-05-08 23:51:00,52.0,19.0,30.16,WSW,248,2.0,5.0,27,0.01,,,1.43,meteohub,2013-05-09 03:51:00,
2013-05-08 23:52:00,52.0,19.0,30.16,SE,135,2.0,5.0,27,0.01,,,1.43,meteohub,2013-05-09 03:52:00,
2013-05-08 23:53:00,52.0,19.9,30.16,South,180,2.0,5.0,28,0.01,,,1.43,meteohub,2013-05-09 03:53:00,
2013-05-08 23:55:00,52.0,19.9,30.16,SE,135,2.0,5.0,28,0.01,,,1.43,meteohub,2013-05-09 03:55:00,
2013-05-08 23:57:00,52.0,19.9,30.16,SE,135,2.0,4.0,28,0.01,,,1.43,meteohub,2013-05-09 03:57:00,
2013-05-08 23:58:00,52.0,19.9,30.16,SE,135,2.0,4.0,28,0.01,,,1.43,meteohub,2013-05-09 03:58:00,
2013-05-08 23:59:00,52.0,19.9,30.16,WSW,248,3.0,4.0,28,0.01,,,1.43,meteohub,2013-05-09 03:59:00,